Time,TemperatureF,DewpointF,PressureIn,WindDirection,WindDirectionDegrees,WindSpeedMPH,WindSpeedGustMPH,Humidity,HourlyPrecipIn,Conditions,Clouds,dailyrainin,SoftwareType,DateUTC
2013-12-14 00:01:00,32.2,29.9,29.29,South,175,0.0,0.0,91,0.00,,---,0.00,VWS V14.01,2013-12-14 05:01:00,
2013-12-14 00:06:00,32.0,29.7,29.29,South,175,0.0,0.0,91,0.00,,---,0.00,VWS V14.01,2013-12-14 05:06:00,
2013-12-14 00:11:00,32.0,29.7,29.26,South,175,0.0,0.0,91,0.00,,---,0.00,VWS V14.01,2013-12-14 05:11:00,
2013-12-14 00:12:00,32.0,29.7,29.26,South,175,0.0,0.0,91,0.00,,---,0.00,VWS V14.01,2013-12-14 05:12:00,
2013-12-14 00:16:00,32.0,29.9,29.26,South,175,0.0,0.0,92,0.00,,---,0.00,VWS V14.01,2013-12-14 05:16:00,
2013-12-14 00:17:00,32.0,29.9,29.26,South,175,0.0,0.0,92,0.00,,---,0.00,VWS V14.01,2013-12-14 05:17:00,
2013-12-14 00:21:00,32.0,29.9,29.26,South,175,0.0,0.0,92,0.00,,---,0.00,VWS V14.01,2013-12-14 05:21:00,
2013-12-14 00:22:00,32.0,29.9,29.26,South,175,0.0,0.0,92,0.00,,---,0.00,VWS V14.01,2013-12-14 05:22:00,
2013-12-14 00:26:00,32.2,30.4,29.26,South,175,0.0,0.0,93,0.00,,---,0.00,VWS V14.01,2013-12-14 05:26:00,
2013-12-14 00:27:00,32.2,30.4,29.26,South,175,0.0,0.0,93,0.00,,---,0.00,VWS V14.01,2013-12-14 05:27:00,
2013-12-14 00:31:00,32.2,30.4,29.26,South,175,0.0,0.0,93,0.00,,---,0.00,VWS V14.01,2013-12-14 05:31:00,
2013-12-14 00:32:00,32.2,30.4,29.26,South,175,0.0,0.0,93,0.00,,---,0.00,VWS V14.01,2013-12-14 05:32:00,
2013-12-14 00:36:00,32.2,30.4,29.26,South,175,0.0,0.0,93,0.00,,---,0.00,VWS V14.01,2013-12-14 05:36:00,
2013-12-14 00:37:00,32.2,30.4,29.26,South,175,0.0,0.0,93,0.00,,---,0.00,VWS V14.01,2013-12-14 05:37:00,
2013-12-14 00:41:00,32.2,30.4,29.26,South,175,0.0,0.0,93,0.00,,---,0.00,VWS V14.01,2013-12-14 05:41:00,
2013-12-14 00:42:00,32.2,30.4,29.26,South,175,0.0,0.0,93,0.00,,---,0.00,VWS V14.01,2013-12-14 05:42:00,
2013-12-14 00:43:00,32.2,30.4,29.26,South,175,0.0,0.0,93,0.00,,---,0.00,VWS V14.01,2013-12-14 05:43:00,
2013-12-14 00:46:00,32.2,30.4,29.26,South,175,0.0,0.0,93,0.00,,---,0.00,VWS V14.01,2013-12-14 05:46:00,
2013-12-14 00:47:00,32.2,30.4,29.26,South,175,0.0,0.0,93,0.00,,---,0.00,VWS V14.01,2013-12-14 05:47:00,
2013-12-14 00:48:00,32.2,30.4,29.26,South,175,0.0,0.0,93,0.00,,---,0.00,VWS V14.01,2013-12-14 05:48:00,
2013-12-14 00:52:00,32.4,30.8,29.26,South,175,0.0,0.0,94,0.00,,---,0.00,VWS V14.01,2013-12-14 05:52:00,
2013-12-14 00:53:00,32.4,30.8,29.26,South,175,0.0,0.0,94,0.00,,---,0.00,VWS V14.01,2013-12-14 05:53:00,
2013-12-14 00:57:00,32.5,31.0,29.23,ESE,115,0.0,0.0,94,0.00,,---,0.00,VWS V14.01,2013-12-14 05:57:00,
2013-12-14 00:58:00,32.5,31.0,29.23,ESE,115,0.0,0.0,94,0.00,,---,0.00,VWS V14.01,2013-12-14 05:58:00,
2013-12-14 01:02:00,32.5,31.0,29.23,NNE,17,2.2,2.7,94,0.00,,---,0.00,VWS V14.01,2013-12-14 06:02:00,
2013-12-14 01:03:00,32.5,31.0,29.23,NNE,17,2.2,2.7,94,0.00,,---,0.00,VWS V14.01,2013-12-14 06:03:00,
2013-12-14 01:04:00,32.5,31.0,29.23,NE,38,3.6,3.6,94,0.00,,---,0.00,VWS V14.01,2013-12-14 06:04:00,
2013-12-14 01:08:00,32.5,31.0,29.23,NNE,32,0.0,0.0,94,0.00,,---,0.00,VWS V14.01,2013-12-14 06:08:00,
2013-12-14 01:09:00,32.5,31.0,29.23,NNE,32,0.0,0.0,94,0.00,,---,0.00,VWS V14.01,2013-12-14 06:09:00,
2013-12-14 01:13:00,32.5,31.0,29.23,NE,48,0.0,0.0,94,0.00,,---,0.00,VWS V14.01,2013-12-14 06:13:00,
2013-12-14 01:14:00,32.5,31.0,29.23,NE,48,0.0,0.0,94,0.00,,---,0.00,VWS V14.01,2013-12-14 06:14:00,
2013-12-14 01:18:00,32.5,31.0,29.23,NE,48,0.0,0.0,94,0.00,,---,0.00,VWS V14.01,2013-12-14 06:18:00,
2013-12-14 01:19:00,32.5,31.0,29.23,NE,48,0.0,0.0,94,0.00,,---,0.00,VWS V14.01,2013-12-14 06:19:00,
2013-12-14 01:23:00,32.5,31.0,29.23,East,79,0.0,0.0,94,0.00,,---,0.00,VWS V14.01,2013-12-14 06:23:00,
2013-12-14 01:24:00,32.5,31.0,29.23,East,79,0.0,0.0,94,0.00,,---,0.00,VWS V14.01,2013-12-14 06:24:00,
2013-12-14 01:25:00,32.5,31.0,29.23,East,79,0.0,0.0,94,0.00,,---,0.00,VWS V14.01,2013-12-14 06:25:00,
2013-12-14 01:28:00,32.5,31.0,29.23,ESE,108,0.0,0.0,94,0.00,,---,0.00,VWS V14.01,2013-12-14 06:28:00,
2013-12-14 01:29:00,32.5,31.3,29.23,East,99,0.0,0.0,95,0.00,,---,0.00,VWS V14.01,2013-12-14 06:29:00,
2013-12-14 01:30:00,32.5,31.3,29.23,East,99,0.0,0.0,95,0.00,,---,0.00,VWS V14.01,2013-12-14 06:30:00,
2013-12-14 01:33:00,32.5,31.3,29.23,East,99,0.0,0.0,95,0.00,,---,0.00,VWS V14.01,2013-12-14 06:33:00,
2013-12-14 01:34:00,32.5,31.3,29.23,East,99,0.0,0.0,95,0.00,,---,0.00,VWS V14.01,2013-12-14 06:34:00,
2013-12-14 01:35:00,32.5,31.3,29.23,East,99,0.0,0.0,95,0.00,,---,0.00,VWS V14.01,2013-12-14 06:35:00,
2013-12-14 01:38:00,32.5,31.3,29.23,East,99,0.0,0.0,95,0.00,,---,0.00,VWS V14.01,2013-12-14 06:38:00,
2013-12-14 01:39:00,32.5,31.3,29.23,East,99,0.0,0.0,95,0.00,,---,0.00,VWS V14.01,2013-12-14 06:39:00,
2013-12-14 01:40:00,32.5,31.3,29.23,East,99,0.0,0.0,95,0.00,,---,0.00,VWS V14.01,2013-12-14 06:40:00,
2013-12-14 01:43:00,32.5,31.3,29.23,East,99,0.0,0.0,95,0.00,,---,0.00,VWS V14.01,2013-12-14 06:43:00,
2013-12-14 01:45:00,32.5,31.3,29.23,East,99,0.0,0.0,95,0.00,,---,0.00,VWS V14.01,2013-12-14 06:45:00,
2013-12-14 01:46:00,32.5,31.3,29.23,East,99,0.0,0.0,95,0.00,,---,0.00,VWS V14.01,2013-12-14 06:46:00,
2013-12-14 01:48:00,32.5,31.3,29.23,East,99,0.0,0.0,95,0.00,,---,0.00,VWS V14.01,2013-12-14 06:48:00,
2013-12-14 01:49:00,32.5,31.3,29.23,East,99,0.0,0.0,95,0.00,,---,0.00,VWS V14.01,2013-12-14 06:49:00,
2013-12-14 01:50:00,32.5,31.3,29.23,East,99,0.0,0.0,95,0.00,,---,0.00,VWS V14.01,2013-12-14 06:50:00,
2013-12-14 01:51:00,32.5,31.3,29.23,East,99,0.0,0.0,95,0.00,,---,0.00,VWS V14.01,2013-12-14 06:51:00,
2013-12-14 01:54:00,32.5,31.3,29.23,East,99,0.0,0.0,95,0.00,,---,0.00,VWS V14.01,2013-12-14 06:54:00,
2013-12-14 01:55:00,32.5,31.3,29.23,East,99,0.0,0.0,95,0.00,,---,0.00,VWS V14.01,2013-12-14 06:55:00,
2013-12-14 01:56:00,32.5,31.3,29.23,East,99,0.0,0.0,95,0.00,,---,0.00,VWS V14.01,2013-12-14 06:56:00,
2013-12-14 01:59:00,32.5,31.3,29.23,East,99,0.0,0.0,95,0.00,,---,0.00,VWS V14.01,2013-12-14 06:59:00,
2013-12-14 02:00:00,32.5,31.3,29.23,East,99,0.0,0.0,95,0.00,,---,0.00,VWS V14.01,2013-12-14 07:00:00,
2013-12-14 02:01:00,32.5,31.3,29.23,East,99,0.0,0.0,95,0.00,,---,0.00,VWS V14.01,2013-12-14 07:01:00,
2013-12-14 02:02:00,32.5,31.3,29.23,East,99,0.0,0.0,95,0.00,,---,0.00,VWS V14.01,2013-12-14 07:02:00,
2013-12-14 02:04:00,32.5,31.3,29.23,East,99,0.0,0.0,95,0.00,,---,0.00,VWS V14.01,2013-12-14 07:04:00,
2013-12-14 02:05:00,32.5,31.3,29.23,East,99,0.0,0.0,95,0.00,,---,0.00,VWS V14.01,2013-12-14 07:05:00,
2013-12-14 02:06:00,32.5,31.3,29.23,East,99,0.0,0.0,95,0.00,,---,0.00,VWS V14.01,2013-12-14 07:06:00,
2013-12-14 02:07:00,32.5,31.3,29.23,East,99,0.0,0.0,95,0.00,,---,0.00,VWS V14.01,2013-12-14 07:07:00,
2013-12-14 02:09:00,32.5,31.3,29.23,East,99,0.0,0.0,95,0.00,,---,0.00,VWS V14.01,2013-12-14 07:09:00,
2013-12-14 02:10:00,32.5,31.3,29.23,East,98,4.0,5.4,95,0.00,,---,0.00,VWS V14.01,2013-12-14 07:10:00,
2013-12-14 02:11:00,32.5,31.5,29.23,East,91,0.0,3.1,96,0.00,,---,0.00,VWS V14.01,2013-12-14 07:11:00,
2013-12-14 02:12:00,32.5,31.5,29.23,East,91,0.0,0.0,96,0.00,,---,0.00,VWS V14.01,2013-12-14 07:12:00,
2013-12-14 02:14:00,32.5,31.5,29.23,East,91,0.0,0.0,96,0.00,,---,0.00,VWS V14.01,2013-12-14 07:14:00,
2013-12-14 02:15:00,32.5,31.5,29.23,East,91,0.0,0.0,96,0.00,,---,0.00,VWS V14.01,2013-12-14 07:15:00,
2013-12-14 02:17:00,32.5,31.3,29.23,East,91,0.0,0.0,95,0.00,,---,0.00,VWS V14.01,2013-12-14 07:17:00,
2013-12-14 02:19:00,32.5,31.3,29.23,East,91,0.0,0.0,95,0.00,,---,0.00,VWS V14.01,2013-12-14 07:19:00,
2013-12-14 02:20:00,32.5,31.3,29.23,East,91,0.0,0.0,95,0.00,,---,0.00,VWS V14.01,2013-12-14 07:20:00,
2013-12-14 02:22:00,32.7,31.5,29.23,East,90,0.0,0.0,95,0.00,,---,0.00,VWS V14.01,2013-12-14 07:22:00,
2013-12-14 02:23:00,32.7,31.5,29.23,East,90,0.0,0.0,95,0.00,,---,0.00,VWS V14.01,2013-12-14 07:23:00,
2013-12-14 02:24:00,32.7,31.5,29.23,East,89,3.1,5.4,95,0.00,,---,0.00,VWS V14.01,2013-12-14 07:24:00,
2013-12-14 02:25:00,32.7,31.5,29.23,East,89,0.0,0.0,95,0.00,,---,0.00,VWS V14.01,2013-12-14 07:25:00,
2013-12-14 02:26:00,32.7,31.5,29.23,East,89,2.7,2.7,95,0.00,,---,0.00,VWS V14.01,2013-12-14 07:26:00,
2013-12-14 02:27:00,32.7,31.5,29.23,ESE,113,0.0,0.0,95,0.00,,---,0.00,VWS V14.01,2013-12-14 07:27:00,
2013-12-14 02:28:00,32.7,31.5,29.23,ESE,112,0.0,0.0,95,0.00,,---,0.00,VWS V14.01,2013-12-14 07:28:00,
2013-12-14 02:30:00,32.7,31.5,29.23,East,96,2.2,3.6,95,0.00,,---,0.00,VWS V14.01,2013-12-14 07:30:00,
2013-12-14 02:31:00,32.9,31.6,29.23,East,96,3.6,3.6,95,0.00,,---,0.00,VWS V14.01,2013-12-14 07:31:00,
2013-12-14 02:33:00,32.9,31.6,29.23,ESE,107,2.7,3.6,95,0.00,,---,0.00,VWS V14.01,2013-12-14 07:33:00,
2013-12-14 02:35:00,32.9,31.6,29.23,East,99,2.2,3.6,95,0.00,,---,0.00,VWS V14.01,2013-12-14 07:35:00,
2013-12-14 02:36:00,33.1,31.5,29.23,East,99,0.0,0.0,94,0.00,,---,0.00,VWS V14.01,2013-12-14 07:36:00,
2013-12-14 02:38:00,33.1,31.5,29.23,East,99,0.0,0.0,94,0.00,,---,0.00,VWS V14.01,2013-12-14 07:38:00,
2013-12-14 02:40:00,33.1,31.5,29.23,East,101,0.0,3.6,94,0.00,,---,0.00,VWS V14.01,2013-12-14 07:40:00,
2013-12-14 02:41:00,33.1,31.5,29.23,East,101,2.2,2.2,94,0.00,,---,0.00,VWS V14.01,2013-12-14 07:41:00,
2013-12-14 02:43:00,33.1,31.5,29.23,East,101,0.0,0.0,94,0.00,,---,0.00,VWS V14.01,2013-12-14 07:43:00,
2013-12-14 02:45:00,33.1,31.5,29.23,East,101,0.0,0.0,94,0.00,,---,0.00,VWS V14.01,2013-12-14 07:45:00,
2013-12-14 02:46:00,33.1,31.3,29.23,East,101,0.0,0.0,93,0.00,,---,0.00,VWS V14.01,2013-12-14 07:46:00,
2013-12-14 02:48:00,33.1,31.3,29.23,East,101,0.0,0.0,93,0.00,,---,0.00,VWS V14.01,2013-12-14 07:48:00,
2013-12-14 02:49:00,33.1,31.3,29.23,East,101,0.0,0.0,93,0.00,,---,0.00,VWS V14.01,2013-12-14 07:49:00,
2013-12-14 02:50:00,33.1,31.5,29.23,East,101,0.0,0.0,94,0.00,,---,0.00,VWS V14.01,2013-12-14 07:50:00,
2013-12-14 02:51:00,33.1,31.5,29.23,East,101,0.0,0.0,94,0.00,,---,0.00,VWS V14.01,2013-12-14 07:51:00,
2013-12-14 02:54:00,33.1,31.5,29.23,East,101,0.0,0.0,94,0.00,,---,0.00,VWS V14.01,2013-12-14 07:54:00,
2013-12-14 02:55:00,33.1,31.5,29.23,East,101,0.0,0.0,94,0.00,,---,0.00,VWS V14.01,2013-12-14 07:55:00,
2013-12-14 02:56:00,33.1,31.5,29.23,East,101,0.0,0.0,94,0.00,,---,0.00,VWS V14.01,2013-12-14 07:56:00,
2013-12-14 02:57:00,33.1,31.5,29.23,East,101,0.0,0.0,94,0.00,,---,0.00,VWS V14.01,2013-12-14 07:57:00,
2013-12-14 02:59:00,33.3,31.7,29.23,East,101,0.0,0.0,94,0.00,,---,0.00,VWS V14.01,2013-12-14 07:59:00,
2013-12-14 03:00:00,33.3,31.7,29.23,East,101,0.0,0.0,94,0.00,,---,0.00,VWS V14.01,2013-12-14 08:00:00,
2013-12-14 03:01:00,33.3,31.7,29.23,East,101,0.0,0.0,94,0.00,,---,0.00,VWS V14.01,2013-12-14 08:01:00,
2013-12-14 03:02:00,33.3,31.7,29.23,East,101,0.0,0.0,94,0.00,,---,0.00,VWS V14.01,2013-12-14 08:02:00,
2013-12-14 03:05:00,33.1,31.5,29.23,East,101,0.0,0.0,94,0.00,,---,0.00,VWS V14.01,2013-12-14 08:05:00,
2013-12-14 03:06:00,33.1,31.5,29.23,East,101,0.0,0.0,94,0.00,,---,0.00,VWS V14.01,2013-12-14 08:06:00,
2013-12-14 03:08:00,33.1,31.5,29.23,East,101,0.0,0.0,94,0.00,,---,0.00,VWS V14.01,2013-12-14 08:08:00,
2013-12-14 03:10:00,33.1,31.5,29.23,East,101,0.0,0.0,94,0.00,,---,0.00,VWS V14.01,2013-12-14 08:10:00,
2013-12-14 03:11:00,33.1,31.5,29.23,East,101,0.0,0.0,94,0.00,,---,0.00,VWS V14.01,2013-12-14 08:11:00,
2013-12-14 03:12:00,33.1,31.5,29.23,East,101,0.0,0.0,94,0.00,,---,0.00,VWS V14.01,2013-12-14 08:12:00,
2013-12-14 03:13:00,33.1,31.5,29.23,East,101,0.0,0.0,94,0.00,,---,0.00,VWS V14.01,2013-12-14 08:13:00,
2013-12-14 03:14:00,33.1,31.5,29.23,East,101,0.0,0.0,94,0.00,,---,0.00,VWS V14.01,2013-12-14 08:14:00,
2013-12-14 03:15:00,33.1,31.5,29.23,East,101,0.0,0.0,94,0.00,,---,0.00,VWS V14.01,2013-12-14 08:15:00,
2013-12-14 03:16:00,33.1,31.5,29.23,East,101,0.0,0.0,94,0.00,,---,0.00,VWS V14.01,2013-12-14 08:16:00,
2013-12-14 03:17:00,33.1,31.8,29.23,East,82,2.7,2.7,95,0.00,,---,0.00,VWS V14.01,2013-12-14 08:17:00,
2013-12-14 03:18:00,33.1,31.8,29.23,ENE,78,3.1,3.1,95,0.00,,---,0.00,VWS V14.01,2013-12-14 08:18:00,
2013-12-14 03:20:00,33.1,31.8,29.23,ENE,78,0.0,2.7,95,0.00,,---,0.00,VWS V14.01,2013-12-14 08:20:00,
2013-12-14 03:21:00,33.1,31.8,29.23,ENE,78,0.0,0.0,95,0.00,,---,0.00,VWS V14.01,2013-12-14 08:21:00,
2013-12-14 03:23:00,33.1,31.8,29.23,ENE,78,0.0,0.0,95,0.00,,---,0.00,VWS V14.01,2013-12-14 08:23:00,
2013-12-14 03:25:00,33.1,31.8,29.23,ENE,78,0.0,0.0,95,0.00,,---,0.00,VWS V14.01,2013-12-14 08:25:00,
2013-12-14 03:26:00,33.1,31.8,29.23,ENE,78,0.0,0.0,95,0.00,,---,0.00,VWS V14.01,2013-12-14 08:26:00,
2013-12-14 03:27:00,33.1,31.8,29.23,ENE,78,0.0,0.0,95,0.00,,---,0.00,VWS V14.01,2013-12-14 08:27:00,
2013-12-14 03:28:00,33.1,31.8,29.23,ENE,78,0.0,0.0,95,0.00,,---,0.00,VWS V14.01,2013-12-14 08:28:00,
2013-12-14 03:30:00,33.1,31.8,29.23,ENE,78,0.0,0.0,95,0.00,,---,0.00,VWS V14.01,2013-12-14 08:30:00,
2013-12-14 03:31:00,33.1,31.8,29.23,ENE,78,0.0,0.0,95,0.00,,---,0.00,VWS V14.01,2013-12-14 08:31:00,
2013-12-14 03:32:00,33.1,31.8,29.23,ENE,78,0.0,0.0,95,0.00,,---,0.00,VWS V14.01,2013-12-14 08:32:00,
2013-12-14 03:33:00,33.1,31.8,29.23,ENE,78,0.0,0.0,95,0.00,,---,0.00,VWS V14.01,2013-12-14 08:33:00,
2013-12-14 03:35:00,33.1,31.8,29.23,ENE,78,0.0,0.0,95,0.00,,---,0.00,VWS V14.01,2013-12-14 08:35:00,
2013-12-14 03:36:00,33.1,31.8,29.23,ENE,78,0.0,0.0,95,0.00,,---,0.00,VWS V14.01,2013-12-14 08:36:00,
2013-12-14 03:37:00,33.1,31.8,29.23,ENE,78,0.0,0.0,95,0.00,,---,0.00,VWS V14.01,2013-12-14 08:37:00,
2013-12-14 03:38:00,33.1,31.8,29.23,ESE,113,2.7,3.6,95,0.00,,---,0.00,VWS V14.01,2013-12-14 08:38:00,
2013-12-14 03:39:00,33.1,32.1,29.23,ESE,109,2.2,3.6,96,0.00,,---,0.00,VWS V14.01,2013-12-14 08:39:00,
2013-12-14 03:40:00,33.1,32.1,29.21,ESE,110,2.2,2.2,96,0.00,,---,0.00,VWS V14.01,2013-12-14 08:40:00,
2013-12-14 03:41:00,33.1,32.1,29.21,ESE,109,0.0,0.0,96,0.00,,---,0.00,VWS V14.01,2013-12-14 08:41:00,
2013-12-14 03:42:00,33.1,32.1,29.21,ESE,109,0.0,0.0,96,0.00,,---,0.00,VWS V14.01,2013-12-14 08:42:00,
2013-12-14 03:43:00,33.1,32.1,29.21,ESE,109,0.0,0.0,96,0.00,,---,0.00,VWS V14.01,2013-12-14 08:43:00,
2013-12-14 03:44:00,33.1,32.1,29.21,ESE,110,0.0,0.0,96,0.00,,---,0.00,VWS V14.01,2013-12-14 08:44:00,
2013-12-14 03:45:00,32.9,31.9,29.21,ESE,109,0.0,0.0,96,0.00,,---,0.00,VWS V14.01,2013-12-14 08:45:00,
2013-12-14 03:47:00,33.1,32.1,29.21,ESE,109,0.0,0.0,96,0.00,,---,0.00,VWS V14.01,2013-12-14 08:47:00,
2013-12-14 03:48:00,33.1,32.1,29.21,ESE,109,0.0,0.0,96,0.00,,---,0.00,VWS V14.01,2013-12-14 08:48:00,
2013-12-14 03:49:00,33.1,32.1,29.21,ESE,110,0.0,0.0,96,0.00,,---,0.00,VWS V14.01,2013-12-14 08:49:00,
2013-12-14 03:52:00,32.9,31.9,29.21,ESE,109,0.0,0.0,96,0.00,,---,0.00,VWS V14.01,2013-12-14 08:52:00,
2013-12-14 03:53:00,32.9,31.9,29.21,ESE,109,0.0,0.0,96,0.00,,---,0.00,VWS V14.01,2013-12-14 08:53:00,
2013-12-14 03:54:00,32.9,31.9,29.21,ESE,109,0.0,0.0,96,0.00,,---,0.00,VWS V14.01,2013-12-14 08:54:00,
2013-12-14 03:57:00,32.9,31.9,29.21,ESE,110,0.0,0.0,96,0.00,,---,0.00,VWS V14.01,2013-12-14 08:57:00,
2013-12-14 03:58:00,32.9,31.9,29.21,ESE,109,0.0,0.0,96,0.00,,---,0.00,VWS V14.01,2013-12-14 08:58:00,
2013-12-14 03:59:00,32.9,31.9,29.21,ESE,109,0.0,0.0,96,0.00,,---,0.00,VWS V14.01,2013-12-14 08:59:00,
2013-12-14 04:00:00,32.9,31.9,29.21,ESE,109,0.0,0.0,96,0.00,,---,0.00,VWS V14.01,2013-12-14 09:00:00,
2013-12-14 04:02:00,32.9,31.9,29.21,ESE,109,0.0,0.0,96,0.00,,---,0.00,VWS V14.01,2013-12-14 09:02:00,
2013-12-14 04:03:00,32.7,31.7,29.21,ESE,110,0.0,0.0,96,0.00,,---,0.00,VWS V14.01,2013-12-14 09:03:00,
2013-12-14 04:04:00,32.7,31.7,29.21,ESE,110,0.0,0.0,96,0.00,,---,0.00,VWS V14.01,2013-12-14 09:04:00,
2013-12-14 04:05:00,32.7,31.7,29.21,ESE,109,0.0,0.0,96,0.00,,---,0.00,VWS V14.01,2013-12-14 09:05:00,
2013-12-14 04:07:00,32.7,31.7,29.21,ESE,110,0.0,0.0,96,0.00,,---,0.00,VWS V14.01,2013-12-14 09:07:00,
2013-12-14 04:08:00,32.7,31.7,29.21,ESE,109,0.0,0.0,96,0.00,,---,0.00,VWS V14.01,2013-12-14 09:08:00,
2013-12-14 04:09:00,32.7,32.0,29.21,ESE,110,0.0,0.0,97,0.00,,---,0.00,VWS V14.01,2013-12-14 09:09:00,
2013-12-14 04:10:00,32.9,32.1,29.21,ESE,109,0.0,0.0,97,0.00,,---,0.00,VWS V14.01,2013-12-14 09:10:00,
2013-12-14 04:13:00,32.9,32.4,29.21,ESE,109,0.0,0.0,98,0.00,,---,0.00,VWS V14.01,2013-12-14 09:13:00,
2013-12-14 04:14:00,32.9,32.4,29.21,ESE,109,0.0,0.0,98,0.00,,---,0.00,VWS V14.01,2013-12-14 09:14:00,
2013-12-14 04:15:00,32.9,32.4,29.21,ESE,109,0.0,0.0,98,0.00,,---,0.00,VWS V14.01,2013-12-14 09:15:00,
2013-12-14 04:18:00,32.9,32.4,29.21,ESE,110,0.0,0.0,98,0.00,,---,0.00,VWS V14.01,2013-12-14 09:18:00,
2013-12-14 04:19:00,32.9,32.4,29.21,ESE,109,0.0,0.0,98,0.00,,---,0.00,VWS V14.01,2013-12-14 09:19:00,
2013-12-14 04:20:00,32.9,32.7,29.21,ESE,109,0.0,0.0,99,0.00,,---,0.00,VWS V14.01,2013-12-14 09:20:00,
2013-12-14 04:23:00,32.9,32.7,29.21,ESE,109,0.0,0.0,99,0.00,,---,0.00,VWS V14.01,2013-12-14 09:23:00,
2013-12-14 04:24:00,32.9,32.7,29.21,ESE,109,0.0,0.0,99,0.00,,---,0.00,VWS V14.01,2013-12-14 09:24:00,
2013-12-14 04:25:00,32.9,32.7,29.21,ESE,109,0.0,0.0,99,0.00,,---,0.00,VWS V14.01,2013-12-14 09:25:00,
2013-12-14 04:28:00,32.9,32.7,29.21,ESE,110,0.0,0.0,99,0.00,,---,0.00,VWS V14.01,2013-12-14 09:28:00,
2013-12-14 04:29:00,32.9,32.7,29.21,ESE,110,0.0,0.0,99,0.00,,---,0.00,VWS V14.01,2013-12-14 09:29:00,
2013-12-14 04:30:00,32.9,32.7,29.21,ESE,109,0.0,0.0,99,0.00,,---,0.00,VWS V14.01,2013-12-14 09:30:00,
2013-12-14 04:34:00,32.9,32.9,29.21,ESE,109,0.0,0.0,100,0.00,,---,0.00,VWS V14.01,2013-12-14 09:34:00,
2013-12-14 04:36:00,33.1,33.1,29.21,ESE,109,0.0,0.0,100,0.00,,---,0.00,VWS V14.01,2013-12-14 09:36:00,
2013-12-14 04:39:00,33.1,33.1,29.21,ESE,109,0.0,0.0,100,0.00,,---,0.00,VWS V14.01,2013-12-14 09:39:00,
2013-12-14 04:40:00,33.1,33.1,29.21,ESE,109,0.0,0.0,100,0.00,,---,0.00,VWS V14.01,2013-12-14 09:40:00,
2013-12-14 04:41:00,33.1,33.1,29.21,ESE,109,0.0,0.0,100,0.00,,---,0.00,VWS V14.01,2013-12-14 09:41:00,
2013-12-14 04:44:00,32.9,32.9,29.21,ESE,109,0.0,0.0,100,0.00,,---,0.00,VWS V14.01,2013-12-14 09:44:00,
2013-12-14 04:45:00,32.9,32.9,29.21,ESE,110,0.0,0.0,100,0.00,,---,0.00,VWS V14.01,2013-12-14 09:45:00,
2013-12-14 04:46:00,32.9,32.9,29.21,ESE,110,0.0,0.0,100,0.00,,---,0.00,VWS V14.01,2013-12-14 09:46:00,
2013-12-14 04:49:00,32.9,32.9,29.21,ESE,109,0.0,0.0,100,0.00,,---,0.00,VWS V14.01,2013-12-14 09:49:00,
2013-12-14 04:50:00,32.9,32.9,29.21,ESE,109,0.0,0.0,100,0.00,,---,0.00,VWS V14.01,2013-12-14 09:50:00,
2013-12-14 04:51:00,32.9,32.9,29.21,ESE,109,0.0,0.0,100,0.00,,---,0.00,VWS V14.01,2013-12-14 09:51:00,
2013-12-14 04:54:00,32.9,32.9,29.21,ESE,110,0.0,0.0,100,0.00,,---,0.00,VWS V14.01,2013-12-14 09:54:00,
2013-12-14 04:55:00,32.9,32.9,29.18,ESE,109,0.0,0.0,100,0.00,,---,0.00,VWS V14.01,2013-12-14 09:55:00,
2013-12-14 04:56:00,32.9,32.9,29.18,ESE,109,0.0,0.0,100,0.00,,---,0.00,VWS V14.01,2013-12-14 09:56:00,
2013-12-14 04:59:00,33.1,33.1,29.18,ESE,109,0.0,0.0,100,0.00,,---,0.00,VWS V14.01,2013-12-14 09:59:00,
2013-12-14 05:00:00,33.1,33.1,29.18,ESE,109,0.0,0.0,100,0.00,,---,0.00,VWS V14.01,2013-12-14 10:00:00,
2013-12-14 05:01:00,33.1,33.1,29.18,ESE,109,0.0,0.0,100,0.00,,---,0.00,VWS V14.01,2013-12-14 10:01:00,
2013-12-14 05:04:00,33.1,33.1,29.18,ESE,109,0.0,0.0,100,0.00,,---,0.00,VWS V14.01,2013-12-14 10:04:00,
2013-12-14 05:05:00,33.1,33.1,29.18,ESE,110,0.0,0.0,100,0.00,,---,0.00,VWS V14.01,2013-12-14 10:05:00,
2013-12-14 05:06:00,33.1,33.1,29.18,ESE,109,0.0,0.0,100,0.00,,---,0.00,VWS V14.01,2013-12-14 10:06:00,
2013-12-14 05:10:00,33.1,33.1,29.18,ESE,109,0.0,0.0,100,0.00,,---,0.00,VWS V14.01,2013-12-14 10:10:00,
2013-12-14 05:11:00,33.1,33.1,29.18,ESE,109,0.0,0.0,100,0.00,,---,0.00,VWS V14.01,2013-12-14 10:11:00,
2013-12-14 05:12:00,33.1,33.1,29.18,ESE,109,0.0,0.0,100,0.00,,---,0.00,VWS V14.01,2013-12-14 10:12:00,
2013-12-14 05:15:00,33.1,33.1,29.18,ESE,109,0.0,0.0,100,0.00,,---,0.00,VWS V14.01,2013-12-14 10:15:00,
2013-12-14 05:16:00,33.1,33.1,29.18,ESE,110,0.0,0.0,100,0.00,,---,0.00,VWS V14.01,2013-12-14 10:16:00,
2013-12-14 05:17:00,33.1,33.1,29.18,ESE,110,0.0,0.0,100,0.00,,---,0.00,VWS V14.01,2013-12-14 10:17:00,
2013-12-14 05:20:00,33.1,33.1,29.18,ESE,109,0.0,0.0,100,0.00,,---,0.00,VWS V14.01,2013-12-14 10:20:00,
2013-12-14 05:22:00,33.1,33.1,29.18,ESE,109,0.0,0.0,100,0.00,,---,0.00,VWS V14.01,2013-12-14 10:22:00,
2013-12-14 05:25:00,33.1,33.1,29.18,ESE,109,0.0,0.0,100,0.00,,---,0.00,VWS V14.01,2013-12-14 10:25:00,
2013-12-14 05:26:00,33.1,33.1,29.18,ESE,109,0.0,0.0,100,0.00,,---,0.00,VWS V14.01,2013-12-14 10:26:00,
2013-12-14 05:27:00,33.1,33.1,29.18,ESE,110,0.0,0.0,100,0.00,,---,0.00,VWS V14.01,2013-12-14 10:27:00,
2013-12-14 05:30:00,32.9,32.9,29.18,ESE,109,0.0,0.0,100,0.00,,---,0.00,VWS V14.01,2013-12-14 10:30:00,
2013-12-14 05:31:00,32.9,32.9,29.18,ESE,109,0.0,0.0,100,0.00,,---,0.00,VWS V14.01,2013-12-14 10:31:00,
2013-12-14 05:32:00,32.9,32.9,29.18,ESE,109,0.0,0.0,100,0.00,,---,0.00,VWS V14.01,2013-12-14 10:32:00,
2013-12-14 05:33:00,32.9,32.9,29.18,ESE,109,0.0,0.0,100,0.00,,---,0.00,VWS V14.01,2013-12-14 10:33:00,
2013-12-14 05:35:00,32.9,32.9,29.18,ESE,109,0.0,0.0,100,0.00,,---,0.00,VWS V14.01,2013-12-14 10:35:00,
2013-12-14 05:37:00,32.9,32.9,29.18,ESE,109,0.0,0.0,100,0.00,,---,0.00,VWS V14.01,2013-12-14 10:37:00,
2013-12-14 05:38:00,32.9,32.9,29.18,ESE,109,0.0,0.0,100,0.00,,---,0.00,VWS V14.01,2013-12-14 10:38:00,
2013-12-14 05:40:00,32.9,32.9,29.18,ESE,109,0.0,0.0,100,0.00,,---,0.00,VWS V14.01,2013-12-14 10:40:00,
2013-12-14 05:41:00,32.9,32.9,29.18,ESE,109,0.0,0.0,100,0.00,,---,0.00,VWS V14.01,2013-12-14 10:41:00,
2013-12-14 05:42:00,32.9,32.9,29.18,ESE,109,0.0,0.0,100,0.00,,---,0.00,VWS V14.01,2013-12-14 10:42:00,
2013-12-14 05:43:00,32.9,32.9,29.18,ESE,110,0.0,0.0,100,0.00,,---,0.00,VWS V14.01,2013-12-14 10:43:00,
2013-12-14 05:46:00,32.9,32.9,29.18,ESE,109,0.0,0.0,100,0.00,,---,0.00,VWS V14.01,2013-12-14 10:46:00,
2013-12-14 05:47:00,32.9,32.9,29.18,ESE,109,0.0,0.0,100,0.00,,---,0.00,VWS V14.01,2013-12-14 10:47:00,
2013-12-14 05:48:00,32.9,32.9,29.18,ESE,110,0.0,0.0,100,0.00,,---,0.00,VWS V14.01,2013-12-14 10:48:00,
2013-12-14 05:51:00,33.1,33.1,29.18,ESE,109,0.0,0.0,100,0.00,,---,0.00,VWS V14.01,2013-12-14 10:51:00,
2013-12-14 05:52:00,33.1,33.1,29.18,ESE,109,0.0,0.0,100,0.00,,---,0.00,VWS V14.01,2013-12-14 10:52:00,
2013-12-14 05:53:00,32.9,32.9,29.18,ESE,109,0.0,0.0,100,0.00,,---,0.00,VWS V14.01,2013-12-14 10:53:00,
2013-12-14 05:56:00,32.9,32.9,29.18,ESE,109,0.0,0.0,100,0.00,,---,0.00,VWS V14.01,2013-12-14 10:56:00,
2013-12-14 05:57:00,32.9,32.9,29.18,ESE,110,0.0,0.0,100,0.00,,---,0.00,VWS V14.01,2013-12-14 10:57:00,
2013-12-14 05:58:00,32.9,32.9,29.18,ESE,110,0.0,0.0,100,0.00,,---,0.00,VWS V14.01,2013-12-14 10:58:00,
2013-12-14 05:59:00,32.9,32.9,29.18,ESE,109,0.0,0.0,100,0.00,,---,0.00,VWS V14.01,2013-12-14 10:59:00,
2013-12-14 06:01:00,32.9,32.9,29.18,ESE,110,0.0,0.0,100,0.00,,---,0.00,VWS V14.01,2013-12-14 11:01:00,
2013-12-14 06:02:00,32.9,32.9,29.18,ESE,109,0.0,0.0,100,0.00,,---,0.00,VWS V14.01,2013-12-14 11:02:00,
2013-12-14 06:03:00,32.9,32.9,29.18,ESE,109,0.0,0.0,100,0.00,,---,0.00,VWS V14.01,2013-12-14 11:03:00,
2013-12-14 06:04:00,32.9,32.9,29.18,ESE,109,0.0,0.0,100,0.00,,---,0.00,VWS V14.01,2013-12-14 11:04:00,
2013-12-14 06:06:00,32.9,32.9,29.18,ESE,109,0.0,0.0,100,0.00,,---,0.00,VWS V14.01,2013-12-14 11:06:00,
2013-12-14 06:07:00,32.9,32.9,29.18,ESE,109,0.0,0.0,100,0.00,,---,0.00,VWS V14.01,2013-12-14 11:07:00,
2013-12-14 06:08:00,32.9,32.9,29.18,ESE,109,0.0,0.0,100,0.00,,---,0.00,VWS V14.01,2013-12-14 11:08:00,
2013-12-14 06:09:00,32.9,32.9,29.18,ESE,109,3.1,3.6,100,0.00,,---,0.00,VWS V14.01,2013-12-14 11:09:00,
2013-12-14 06:11:00,32.9,32.9,29.18,ESE,109,0.0,0.0,100,0.00,,---,0.00,VWS V14.01,2013-12-14 11:11:00,
2013-12-14 06:12:00,32.9,32.9,29.18,ESE,109,0.0,0.0,100,0.00,,---,0.00,VWS V14.01,2013-12-14 11:12:00,
2013-12-14 06:13:00,32.7,32.7,29.18,ESE,109,0.0,0.0,100,0.00,,---,0.00,VWS V14.01,2013-12-14 11:13:00,
2013-12-14 06:14:00,32.7,32.7,29.18,ESE,109,0.0,0.0,100,0.00,,---,0.00,VWS V14.01,2013-12-14 11:14:00,
2013-12-14 06:17:00,32.7,32.7,29.18,ESE,109,0.0,0.0,100,0.00,,---,0.00,VWS V14.01,2013-12-14 11:17:00,
2013-12-14 06:18:00,32.7,32.7,29.18,ESE,110,0.0,0.0,100,0.00,,---,0.00,VWS V14.01,2013-12-14 11:18:00,
2013-12-14 06:19:00,32.7,32.7,29.18,ESE,109,0.0,0.0,100,0.00,,---,0.00,VWS V14.01,2013-12-14 11:19:00,
2013-12-14 06:22:00,32.7,32.7,29.18,ESE,109,0.0,0.0,100,0.00,,---,0.00,VWS V14.01,2013-12-14 11:22:00,
2013-12-14 06:23:00,32.7,32.7,29.18,ESE,109,0.0,0.0,100,0.00,,---,0.00,VWS V14.01,2013-12-14 11:23:00,
2013-12-14 06:24:00,32.7,32.7,29.18,ESE,110,0.0,0.0,100,0.00,,---,0.00,VWS V14.01,2013-12-14 11:24:00,
2013-12-14 06:25:00,32.7,32.7,29.15,East,100,0.0,0.0,100,0.00,,---,0.00,VWS V14.01,2013-12-14 11:25:00,
2013-12-14 06:27:00,32.7,32.7,29.15,East,100,0.0,0.0,100,0.00,,---,0.00,VWS V14.01,2013-12-14 11:27:00,
2013-12-14 06:28:00,32.7,32.7,29.15,East,100,0.0,0.0,100,0.00,,---,0.00,VWS V14.01,2013-12-14 11:28:00,
2013-12-14 06:29:00,32.7,32.7,29.15,East,100,0.0,0.0,100,0.00,,---,0.00,VWS V14.01,2013-12-14 11:29:00,
2013-12-14 06:30:00,32.7,32.7,29.15,East,96,0.0,0.0,100,0.00,,---,0.00,VWS V14.01,2013-12-14 11:30:00,
2013-12-14 06:32:00,32.7,32.7,29.15,ESE,107,0.0,0.0,100,0.00,,---,0.00,VWS V14.01,2013-12-14 11:32:00,
2013-12-14 06:33:00,32.7,32.7,29.15,ESE,107,0.0,0.0,100,0.00,,---,0.00,VWS V14.01,2013-12-14 11:33:00,
2013-12-14 06:34:00,32.7,32.7,29.15,ESE,107,0.0,0.0,100,0.00,,---,0.00,VWS V14.01,2013-12-14 11:34:00,
2013-12-14 06:35:00,32.7,32.7,29.15,ESE,107,0.0,0.0,100,0.00,,---,0.00,VWS V14.01,2013-12-14 11:35:00,
2013-12-14 06:37:00,32.7,32.7,29.15,ESE,111,0.0,0.0,100,0.00,,---,0.00,VWS V14.01,2013-12-14 11:37:00,
2013-12-14 06:38:00,32.7,32.7,29.15,ESE,110,0.0,0.0,100,0.00,,---,0.00,VWS V14.01,2013-12-14 11:38:00,
2013-12-14 06:39:00,32.7,32.7,29.15,ESE,110,0.0,0.0,100,0.00,,---,0.00,VWS V14.01,2013-12-14 11:39:00,
2013-12-14 06:40:00,32.7,32.7,29.15,ESE,110,0.0,0.0,100,0.00,,---,0.00,VWS V14.01,2013-12-14 11:40:00,
2013-12-14 06:42:00,32.7,32.7,29.15,East,96,0.0,0.0,100,0.00,,---,0.00,VWS V14.01,2013-12-14 11:42:00,
2013-12-14 06:43:00,32.7,32.7,29.15,East,96,0.0,0.0,100,0.00,,---,0.00,VWS V14.01,2013-12-14 11:43:00,
2013-12-14 06:44:00,32.7,32.7,29.15,East,99,4.9,4.9,100,0.00,,---,0.00,VWS V14.01,2013-12-14 11:44:00,
2013-12-14 06:45:00,32.7,32.7,29.15,East,99,2.7,3.6,100,0.00,,---,0.00,VWS V14.01,2013-12-14 11:45:00,
2013-12-14 06:46:00,32.7,32.7,29.15,East,99,0.0,0.0,100,0.00,,---,0.00,VWS V14.01,2013-12-14 11:46:00,
2013-12-14 06:48:00,32.7,32.7,29.15,East,99,0.0,0.0,100,0.00,,---,0.00,VWS V14.01,2013-12-14 11:48:00,
2013-12-14 06:50:00,32.7,32.7,29.15,East,99,0.0,0.0,100,0.00,,---,0.00,VWS V14.01,2013-12-14 11:50:00,
2013-12-14 06:51:00,32.7,32.7,29.15,ESE,105,2.7,3.1,100,0.00,,---,0.00,VWS V14.01,2013-12-14 11:51:00,
2013-12-14 06:53:00,32.7,32.7,29.15,ESE,105,0.0,0.0,100,0.00,,---,0.00,VWS V14.01,2013-12-14 11:53:00,
2013-12-14 06:55:00,32.7,32.7,29.15,ESE,105,0.0,0.0,100,0.00,,---,0.00,VWS V14.01,2013-12-14 11:55:00,
2013-12-14 06:56:00,32.7,32.7,29.15,ESE,109,4.9,5.4,100,0.00,,---,0.00,VWS V14.01,2013-12-14 11:56:00,
2013-12-14 06:58:00,32.7,32.7,29.15,East,96,0.0,2.2,100,0.00,,---,0.00,VWS V14.01,2013-12-14 11:58:00,
2013-12-14 07:00:00,32.7,32.7,29.15,SE,129,3.6,3.6,100,0.00,,---,0.00,VWS V14.01,2013-12-14 12:00:00,
2013-12-14 07:01:00,32.7,32.7,29.15,East,91,0.0,4.0,100,0.00,,---,0.00,VWS V14.01,2013-12-14 12:01:00,
2013-12-14 07:03:00,32.7,32.7,29.15,ESE,110,3.1,3.1,100,0.00,,---,0.00,VWS V14.01,2013-12-14 12:03:00,
2013-12-14 07:05:00,32.7,32.7,29.15,East,85,0.0,0.0,100,0.00,,---,0.00,VWS V14.01,2013-12-14 12:05:00,
2013-12-14 07:06:00,32.7,32.7,29.15,East,85,0.0,0.0,100,0.00,,---,0.00,VWS V14.01,2013-12-14 12:06:00,
2013-12-14 07:08:00,32.7,32.7,29.15,East,99,0.0,0.0,100,0.00,,---,0.00,VWS V14.01,2013-12-14 12:08:00,
2013-12-14 07:10:00,32.7,32.7,29.15,East,93,0.0,3.6,100,0.00,,---,0.00,VWS V14.01,2013-12-14 12:10:00,
2013-12-14 07:11:00,32.7,32.7,29.15,East,92,0.0,0.0,100,0.00,,---,0.00,VWS V14.01,2013-12-14 12:11:00,
2013-12-14 07:13:00,32.7,32.7,29.15,East,92,0.0,0.0,100,0.00,,---,0.00,VWS V14.01,2013-12-14 12:13:00,
2013-12-14 07:14:00,32.7,32.7,29.15,East,92,0.0,0.0,100,0.00,,---,0.00,VWS V14.01,2013-12-14 12:14:00,
2013-12-14 07:15:00,32.7,32.7,29.15,East,88,2.2,3.1,100,0.00,,---,0.00,VWS V14.01,2013-12-14 12:15:00,
2013-12-14 07:16:00,32.7,32.7,29.15,East,88,0.0,2.7,100,0.00,,---,0.00,VWS V14.01,2013-12-14 12:16:00,
2013-12-14 07:17:00,32.7,32.7,29.15,ESE,109,2.7,2.7,100,0.00,,---,0.00,VWS V14.01,2013-12-14 12:17:00,
2013-12-14 07:19:00,32.7,32.7,29.15,ESE,109,0.0,2.7,100,0.00,,---,0.00,VWS V14.01,2013-12-14 12:19:00,
2013-12-14 07:20:00,32.7,32.7,29.15,East,97,0.0,0.0,100,0.00,,---,0.00,VWS V14.01,2013-12-14 12:20:00,
2013-12-14 07:21:00,32.7,32.7,29.15,East,97,0.0,0.0,100,0.00,,---,0.00,VWS V14.01,2013-12-14 12:21:00,
2013-12-14 07:22:00,32.7,32.7,29.15,East,97,0.0,0.0,100,0.00,,---,0.00,VWS V14.01,2013-12-14 12:22:00,
2013-12-14 07:24:00,32.7,32.7,29.15,ESE,103,2.7,3.6,100,0.00,,---,0.00,VWS V14.01,2013-12-14 12:24:00,
2013-12-14 07:26:00,32.7,32.7,29.15,SE,133,0.0,0.0,100,0.00,,---,0.00,VWS V14.01,2013-12-14 12:26:00,
2013-12-14 07:27:00,32.7,32.7,29.15,SE,133,0.0,0.0,100,0.00,,---,0.00,VWS V14.01,2013-12-14 12:27:00,
2013-12-14 07:29:00,32.7,32.7,29.15,SE,132,2.2,2.7,100,0.00,,---,0.00,VWS V14.01,2013-12-14 12:29:00,
2013-12-14 07:31:00,32.7,32.7,29.15,SE,131,0.0,0.0,100,0.00,,---,0.00,VWS V14.01,2013-12-14 12:31:00,
2013-12-14 07:32:00,32.7,32.7,29.15,East,94,0.0,0.0,100,0.00,,---,0.00,VWS V14.01,2013-12-14 12:32:00,
2013-12-14 07:34:00,32.7,32.7,29.15,ESE,106,0.0,4.9,100,0.00,,---,0.00,VWS V14.01,2013-12-14 12:34:00,
2013-12-14 07:35:00,32.7,32.7,29.15,ESE,105,0.0,0.0,100,0.00,,---,0.00,VWS V14.01,2013-12-14 12:35:00,
2013-12-14 07:36:00,32.7,32.7,29.15,ESE,104,0.0,0.0,100,0.00,,---,0.00,VWS V14.01,2013-12-14 12:36:00,
2013-12-14 07:37:00,32.7,32.7,29.15,ESE,104,0.0,0.0,100,0.00,,---,0.00,VWS V14.01,2013-12-14 12:37:00,
2013-12-14 07:38:00,32.9,32.9,29.15,ESE,104,0.0,0.0,100,0.00,,---,0.00,VWS V14.01,2013-12-14 12:38:00,
2013-12-14 07:39:00,32.9,32.9,29.15,ESE,104,0.0,0.0,100,0.00,,---,0.00,VWS V14.01,2013-12-14 12:39:00,
2013-12-14 07:40:00,32.9,32.9,29.15,ESE,104,0.0,0.0,100,0.00,,---,0.00,VWS V14.01,2013-12-14 12:40:00,
2013-12-14 07:41:00,32.9,32.9,29.15,ESE,104,0.0,0.0,100,0.00,,---,0.00,VWS V14.01,2013-12-14 12:41:00,
2013-12-14 07:42:00,32.9,32.9,29.15,ESE,104,0.0,0.0,100,0.00,,---,0.00,VWS V14.01,2013-12-14 12:42:00,
2013-12-14 07:43:00,32.9,32.9,29.15,ESE,104,0.0,0.0,100,0.00,,---,0.00,VWS V14.01,2013-12-14 12:43:00,
2013-12-14 07:44:00,32.9,32.9,29.15,ESE,104,0.0,0.0,100,0.00,,---,0.00,VWS V14.01,2013-12-14 12:44:00,
2013-12-14 07:45:00,32.9,32.9,29.15,ESE,104,0.0,0.0,100,0.00,,---,0.00,VWS V14.01,2013-12-14 12:45:00,
2013-12-14 07:46:00,32.9,32.9,29.15,ESE,104,0.0,0.0,100,0.00,,---,0.00,VWS V14.01,2013-12-14 12:46:00,
2013-12-14 07:47:00,32.9,32.9,29.15,East,98,0.0,0.0,100,0.00,,---,0.00,VWS V14.01,2013-12-14 12:47:00,
2013-12-14 07:48:00,32.9,32.9,29.15,East,98,0.0,0.0,100,0.00,,---,0.00,VWS V14.01,2013-12-14 12:48:00,
2013-12-14 07:49:00,32.9,32.9,29.15,East,98,0.0,0.0,100,0.00,,---,0.00,VWS V14.01,2013-12-14 12:49:00,
2013-12-14 07:50:00,32.9,32.9,29.15,East,98,0.0,0.0,100,0.00,,---,0.00,VWS V14.01,2013-12-14 12:50:00,
2013-12-14 07:51:00,32.9,32.9,29.15,ENE,72,0.0,0.0,100,0.00,,---,0.00,VWS V14.01,2013-12-14 12:51:00,
2013-12-14 07:53:00,32.9,32.9,29.15,East,81,0.0,0.0,100,0.00,,---,0.00,VWS V14.01,2013-12-14 12:53:00,
2013-12-14 07:54:00,32.9,32.9,29.15,East,82,0.0,0.0,100,0.00,,---,0.00,VWS V14.01,2013-12-14 12:54:00,
2013-12-14 07:55:00,32.9,32.9,29.12,ESE,104,0.0,0.0,100,0.00,,---,0.00,VWS V14.01,2013-12-14 12:55:00,
2013-12-14 07:56:00,33.1,33.1,29.12,East,87,0.0,0.0,100,0.00,,---,0.00,VWS V14.01,2013-12-14 12:56:00,
2013-12-14 07:58:00,33.1,33.1,29.12,East,87,0.0,0.0,100,0.00,,---,0.00,VWS V14.01,2013-12-14 12:58:00,
2013-12-14 07:59:00,33.1,33.1,29.12,East,87,0.0,0.0,100,0.00,,---,0.00,VWS V14.01,2013-12-14 12:59:00,
2013-12-14 08:00:00,33.1,33.1,29.12,East,87,0.0,0.0,100,0.00,,---,0.00,VWS V14.01,2013-12-14 13:00:00,
2013-12-14 08:01:00,32.9,32.9,29.12,East,87,0.0,0.0,100,0.00,,---,0.00,VWS V14.01,2013-12-14 13:01:00,
2013-12-14 08:04:00,32.9,32.9,29.12,East,87,0.0,0.0,100,0.00,,---,0.00,VWS V14.01,2013-12-14 13:04:00,
2013-12-14 08:05:00,32.9,32.9,29.12,East,87,0.0,0.0,100,0.00,,---,0.00,VWS V14.01,2013-12-14 13:05:00,
2013-12-14 08:07:00,33.1,33.1,29.12,East,87,0.0,0.0,100,0.00,,---,0.00,VWS V14.01,2013-12-14 13:07:00,
2013-12-14 08:09:00,33.1,33.1,29.12,East,82,3.1,3.6,100,0.00,,---,0.00,VWS V14.01,2013-12-14 13:09:00,
2013-12-14 08:10:00,33.1,33.1,29.12,East,82,0.0,3.6,100,0.00,,---,0.00,VWS V14.01,2013-12-14 13:10:00,
2013-12-14 08:12:00,33.1,33.1,29.12,East,82,0.0,0.0,100,0.00,,---,0.00,VWS V14.01,2013-12-14 13:12:00,
2013-12-14 08:14:00,33.1,33.1,29.12,ESE,103,0.0,3.6,100,0.00,,---,0.00,VWS V14.01,2013-12-14 13:14:00,
2013-12-14 08:15:00,33.1,33.1,29.12,ESE,103,0.0,3.6,100,0.00,,---,0.00,VWS V14.01,2013-12-14 13:15:00,
2013-12-14 08:16:00,33.1,33.1,29.12,ENE,77,0.0,0.0,100,0.00,,---,0.00,VWS V14.01,2013-12-14 13:16:00,
2013-12-14 08:18:00,33.1,33.1,29.12,ESE,108,0.0,5.4,100,0.00,,---,0.00,VWS V14.01,2013-12-14 13:18:00,
2013-12-14 08:19:00,33.1,33.1,29.12,ESE,108,0.0,0.0,100,0.00,,---,0.00,VWS V14.01,2013-12-14 13:19:00,
2013-12-14 08:20:00,33.1,33.1,29.12,ESE,108,0.0,0.0,100,0.00,,---,0.00,VWS V14.01,2013-12-14 13:20:00,
2013-12-14 08:21:00,33.1,33.1,29.12,ESE,108,0.0,0.0,100,0.00,,---,0.00,VWS V14.01,2013-12-14 13:21:00,
2013-12-14 08:23:00,33.3,33.3,29.12,ESE,119,0.0,3.6,100,0.00,,---,0.00,VWS V14.01,2013-12-14 13:23:00,
2013-12-14 08:24:00,33.3,33.3,29.12,ESE,105,4.0,4.0,100,0.00,,---,0.00,VWS V14.01,2013-12-14 13:24:00,
2013-12-14 08:25:00,33.3,33.3,29.09,East,94,3.6,4.0,100,0.00,,---,0.00,VWS V14.01,2013-12-14 13:25:00,
2013-12-14 08:26:00,33.3,33.3,29.09,East,94,0.0,3.6,100,0.00,,---,0.00,VWS V14.01,2013-12-14 13:26:00,
2013-12-14 08:27:00,33.3,33.3,29.09,East,94,3.6,4.0,100,0.00,,---,0.00,VWS V14.01,2013-12-14 13:27:00,
2013-12-14 08:28:00,33.4,33.4,29.09,East,98,2.7,2.7,100,0.00,,---,0.00,VWS V14.01,2013-12-14 13:28:00,
2013-12-14 08:30:00,33.4,33.4,29.09,ESE,116,3.6,4.0,100,0.00,,---,0.00,VWS V14.01,2013-12-14 13:30:00,
2013-12-14 08:31:00,33.6,33.6,29.09,ESE,102,0.0,0.0,100,0.00,,---,0.00,VWS V14.01,2013-12-14 13:31:00,
2013-12-14 08:32:00,33.6,33.6,29.09,ESE,118,4.0,4.0,100,0.00,,---,0.00,VWS V14.01,2013-12-14 13:32:00,
2013-12-14 08:33:00,33.6,33.6,29.09,ESE,123,3.6,4.0,100,0.00,,---,0.00,VWS V14.01,2013-12-14 13:33:00,
2013-12-14 08:35:00,33.8,33.8,29.09,ESE,104,0.0,4.0,100,0.00,,---,0.00,VWS V14.01,2013-12-14 13:35:00,
2013-12-14 08:36:00,33.8,33.8,29.09,East,84,3.1,3.6,100,0.00,,---,0.00,VWS V14.01,2013-12-14 13:36:00,
2013-12-14 08:37:00,33.8,33.8,29.09,East,79,4.0,4.0,100,0.00,,---,0.00,VWS V14.01,2013-12-14 13:37:00,
2013-12-14 08:38:00,33.8,33.8,29.09,ESE,102,5.8,5.8,100,0.00,,---,0.00,VWS V14.01,2013-12-14 13:38:00,
2013-12-14 08:40:00,34.0,34.0,29.09,ENE,77,5.4,5.8,100,0.00,,---,0.00,VWS V14.01,2013-12-14 13:40:00,
2013-12-14 08:41:00,34.0,34.0,29.09,ESE,118,5.4,5.4,100,0.00,,---,0.00,VWS V14.01,2013-12-14 13:41:00,
2013-12-14 08:42:00,34.0,34.0,29.09,SSE,147,4.0,5.4,100,0.00,,---,0.00,VWS V14.01,2013-12-14 13:42:00,
2013-12-14 08:44:00,34.2,34.2,29.09,East,94,2.2,2.2,100,0.00,,---,0.00,VWS V14.01,2013-12-14 13:44:00,
2013-12-14 08:45:00,34.2,34.2,29.09,ENE,75,3.1,3.1,100,0.00,,---,0.00,VWS V14.01,2013-12-14 13:45:00,
2013-12-14 08:46:00,34.2,34.2,29.09,ESE,120,2.7,5.4,100,0.00,,---,0.00,VWS V14.01,2013-12-14 13:46:00,
2013-12-14 08:47:00,34.2,34.2,29.09,East,86,4.9,4.9,100,0.00,,---,0.00,VWS V14.01,2013-12-14 13:47:00,
2013-12-14 08:49:00,34.2,34.2,29.09,East,97,5.8,6.7,100,0.00,,---,0.00,VWS V14.01,2013-12-14 13:49:00,
2013-12-14 08:50:00,34.3,34.3,29.09,ESE,120,3.6,3.6,100,0.00,,---,0.00,VWS V14.01,2013-12-14 13:50:00,
2013-12-14 08:52:00,34.3,34.3,29.09,East,93,0.0,3.1,100,0.00,,---,0.00,VWS V14.01,2013-12-14 13:52:00,
2013-12-14 08:53:00,34.3,34.3,29.09,SE,124,2.2,2.2,100,0.00,,---,0.00,VWS V14.01,2013-12-14 13:53:00,
2013-12-14 08:54:00,34.3,34.3,29.09,SE,130,0.0,5.8,100,0.00,,---,0.00,VWS V14.01,2013-12-14 13:54:00,
2013-12-14 08:55:00,34.3,34.3,29.09,East,90,2.7,2.7,100,0.00,,---,0.00,VWS V14.01,2013-12-14 13:55:00,
2013-12-14 08:57:00,34.3,34.3,29.09,ESE,120,2.7,2.7,100,0.00,,---,0.00,VWS V14.01,2013-12-14 13:57:00,
2013-12-14 08:58:00,34.5,34.5,29.09,ESE,104,2.2,2.2,100,0.00,,---,0.00,VWS V14.01,2013-12-14 13:58:00,
2013-12-14 08:59:00,34.5,34.5,29.09,SE,134,3.1,3.1,100,0.00,,---,0.00,VWS V14.01,2013-12-14 13:59:00,
2013-12-14 09:00:00,34.5,34.5,29.09,East,81,0.0,3.1,100,0.00,,---,0.00,VWS V14.01,2013-12-14 14:00:00,
2013-12-14 09:02:00,34.5,34.5,29.09,East,96,4.0,5.4,100,0.00,,---,0.00,VWS V14.01,2013-12-14 14:02:00,
2013-12-14 09:03:00,34.5,34.5,29.09,ESE,111,0.0,0.0,100,0.00,,---,0.00,VWS V14.01,2013-12-14 14:03:00,
2013-12-14 09:04:00,34.5,34.5,29.09,ESE,115,4.9,4.9,100,0.00,,---,0.00,VWS V14.01,2013-12-14 14:04:00,
2013-12-14 09:05:00,34.5,34.5,29.09,ESE,115,2.2,2.7,100,0.00,,---,0.00,VWS V14.01,2013-12-14 14:05:00,
2013-12-14 09:07:00,34.5,34.5,29.09,ESE,113,4.0,4.0,100,0.04,,---,0.04,VWS V14.01,2013-12-14 14:07:00,
2013-12-14 09:08:00,34.5,34.5,29.09,ESE,112,5.4,5.4,100,0.04,,---,0.04,VWS V14.01,2013-12-14 14:08:00,
2013-12-14 09:09:00,34.5,34.5,29.09,SE,130,3.1,3.1,100,0.04,,---,0.04,VWS V14.01,2013-12-14 14:09:00,
2013-12-14 09:10:00,34.5,34.5,29.09,SE,131,3.1,4.0,100,0.04,,---,0.04,VWS V14.01,2013-12-14 14:10:00,
2013-12-14 09:12:00,34.5,34.5,29.09,ESE,113,7.2,7.2,100,0.04,,---,0.04,VWS V14.01,2013-12-14 14:12:00,
2013-12-14 09:13:00,34.7,34.7,29.09,ESE,107,6.3,6.3,100,0.04,,---,0.04,VWS V14.01,2013-12-14 14:13:00,
2013-12-14 09:14:00,34.7,34.7,29.09,ESE,121,4.9,4.9,100,0.04,,---,0.04,VWS V14.01,2013-12-14 14:14:00,
2013-12-14 09:15:00,34.7,34.7,29.09,SE,127,6.3,6.3,100,0.04,,---,0.04,VWS V14.01,2013-12-14 14:15:00,
2013-12-14 09:17:00,34.7,34.7,29.09,East,97,3.1,5.4,100,0.04,,---,0.04,VWS V14.01,2013-12-14 14:17:00,
2013-12-14 09:18:00,34.7,34.7,29.09,ENE,65,5.4,5.4,100,0.04,,---,0.04,VWS V14.01,2013-12-14 14:18:00,
2013-12-14 09:19:00,34.7,34.7,29.09,ESE,108,2.2,5.4,100,0.04,,---,0.04,VWS V14.01,2013-12-14 14:19:00,
2013-12-14 09:20:00,34.7,34.7,29.09,East,89,2.7,3.6,100,0.04,,---,0.04,VWS V14.01,2013-12-14 14:20:00,
2013-12-14 09:22:00,34.9,34.9,29.09,East,100,4.0,4.0,100,0.04,,---,0.04,VWS V14.01,2013-12-14 14:22:00,
2013-12-14 09:23:00,34.9,34.9,29.09,ESE,116,6.3,6.3,100,0.04,,---,0.04,VWS V14.01,2013-12-14 14:23:00,
2013-12-14 09:24:00,34.9,34.9,29.09,East,88,2.7,6.3,100,0.04,,---,0.04,VWS V14.01,2013-12-14 14:24:00,
2013-12-14 09:25:00,34.9,34.9,29.06,ESE,102,3.6,3.6,100,0.04,,---,0.04,VWS V14.01,2013-12-14 14:25:00,
2013-12-14 09:26:00,34.9,34.9,29.06,ESE,111,3.6,5.8,100,0.04,,---,0.04,VWS V14.01,2013-12-14 14:26:00,
2013-12-14 09:28:00,34.9,34.9,29.06,ESE,116,5.4,6.3,100,0.04,,---,0.04,VWS V14.01,2013-12-14 14:28:00,
2013-12-14 09:29:00,34.9,34.9,29.06,ESE,111,7.6,7.6,100,0.04,,---,0.04,VWS V14.01,2013-12-14 14:29:00,
2013-12-14 09:30:00,34.9,34.9,29.06,ESE,116,4.9,5.4,100,0.04,,---,0.04,VWS V14.01,2013-12-14 14:30:00,
2013-12-14 09:31:00,34.9,34.9,29.06,ESE,110,2.2,5.4,100,0.04,,---,0.04,VWS V14.01,2013-12-14 14:31:00,
2013-12-14 09:33:00,34.9,34.9,29.06,ESE,114,2.7,2.7,100,0.04,,---,0.04,VWS V14.01,2013-12-14 14:33:00,
2013-12-14 09:34:00,34.9,34.9,29.06,SSE,154,4.9,4.9,100,0.04,,---,0.04,VWS V14.01,2013-12-14 14:34:00,
2013-12-14 09:35:00,34.9,34.9,29.06,ESE,115,3.6,4.9,100,0.04,,---,0.04,VWS V14.01,2013-12-14 14:35:00,
2013-12-14 09:36:00,35.1,35.1,29.06,ENE,58,4.0,4.0,100,0.08,,---,0.08,VWS V14.01,2013-12-14 14:36:00,
2013-12-14 09:38:00,35.1,35.1,29.06,East,101,4.0,5.4,100,0.08,,---,0.08,VWS V14.01,2013-12-14 14:38:00,
2013-12-14 09:39:00,35.1,35.1,29.06,ESE,105,3.6,5.4,100,0.08,,---,0.08,VWS V14.01,2013-12-14 14:39:00,
2013-12-14 09:40:00,35.1,35.1,29.06,East,82,4.9,6.3,100,0.08,,---,0.08,VWS V14.01,2013-12-14 14:40:00,
2013-12-14 09:41:00,35.1,35.1,29.06,SSE,166,3.1,3.6,100,0.08,,---,0.08,VWS V14.01,2013-12-14 14:41:00,
2013-12-14 09:43:00,35.1,35.1,29.06,East,83,3.6,3.6,100,0.08,,---,0.08,VWS V14.01,2013-12-14 14:43:00,
2013-12-14 09:44:00,35.1,35.1,29.06,ESE,106,6.3,6.3,100,0.08,,---,0.08,VWS V14.01,2013-12-14 14:44:00,
2013-12-14 09:45:00,35.1,35.1,29.06,East,95,4.0,6.3,100,0.08,,---,0.08,VWS V14.01,2013-12-14 14:45:00,
2013-12-14 09:46:00,35.1,35.1,29.06,ENE,73,3.1,4.0,100,0.08,,---,0.08,VWS V14.01,2013-12-14 14:46:00,
2013-12-14 09:48:00,35.2,35.2,29.06,East,101,3.1,3.1,100,0.08,,---,0.08,VWS V14.01,2013-12-14 14:48:00,
2013-12-14 09:49:00,35.2,35.2,29.06,East,101,3.1,3.1,100,0.08,,---,0.08,VWS V14.01,2013-12-14 14:49:00,
2013-12-14 09:50:00,35.2,35.2,29.06,ESE,107,4.9,4.9,100,0.08,,---,0.08,VWS V14.01,2013-12-14 14:50:00,
2013-12-14 09:51:00,35.2,35.2,29.06,SSE,150,2.7,3.6,100,0.08,,---,0.08,VWS V14.01,2013-12-14 14:51:00,
2013-12-14 09:52:00,35.2,35.2,29.06,SSE,167,3.1,6.3,100,0.08,,---,0.08,VWS V14.01,2013-12-14 14:52:00,
2013-12-14 09:53:00,35.2,35.2,29.06,ESE,121,5.8,6.7,100,0.08,,---,0.08,VWS V14.01,2013-12-14 14:53:00,
2013-12-14 09:54:00,35.2,35.2,29.06,ESE,106,4.9,5.8,100,0.08,,---,0.08,VWS V14.01,2013-12-14 14:54:00,
2013-12-14 09:55:00,35.2,35.2,29.03,ESE,110,5.8,5.8,100,0.08,,---,0.08,VWS V14.01,2013-12-14 14:55:00,
2013-12-14 09:56:00,35.2,35.2,29.03,SE,130,5.4,5.8,100,0.08,,---,0.08,VWS V14.01,2013-12-14 14:56:00,
2013-12-14 09:57:00,35.2,35.2,29.03,East,97,0.0,5.4,100,0.08,,---,0.08,VWS V14.01,2013-12-14 14:57:00,
2013-12-14 09:58:00,35.2,35.2,29.03,ESE,106,3.6,5.4,100,0.08,,---,0.08,VWS V14.01,2013-12-14 14:58:00,
2013-12-14 09:59:00,35.2,35.2,29.03,East,97,4.9,5.8,100,0.12,,---,0.12,VWS V14.01,2013-12-14 14:59:00,
2013-12-14 10:00:00,35.2,35.2,29.03,SE,133,3.1,3.6,100,0.12,,---,0.12,VWS V14.01,2013-12-14 15:00:00,
2013-12-14 10:01:00,35.2,35.2,29.03,ESE,121,3.1,3.1,100,0.12,,---,0.12,VWS V14.01,2013-12-14 15:01:00,
2013-12-14 10:02:00,35.2,35.2,29.03,ENE,64,10.5,10.5,100,0.12,,---,0.12,VWS V14.01,2013-12-14 15:02:00,
2013-12-14 10:04:00,35.2,35.2,29.03,ESE,110,6.3,6.3,100,0.12,,---,0.12,VWS V14.01,2013-12-14 15:04:00,
2013-12-14 10:05:00,35.2,35.2,29.03,SE,126,2.7,2.7,100,0.12,,---,0.12,VWS V14.01,2013-12-14 15:05:00,
2013-12-14 10:06:00,35.2,35.2,29.03,East,91,2.7,3.6,100,0.12,,---,0.12,VWS V14.01,2013-12-14 15:06:00,
2013-12-14 10:07:00,35.2,35.2,29.03,ESE,111,5.4,5.4,100,0.08,,---,0.12,VWS V14.01,2013-12-14 15:07:00,
2013-12-14 10:09:00,35.2,35.2,29.03,SSE,167,0.0,5.8,100,0.08,,---,0.12,VWS V14.01,2013-12-14 15:09:00,
2013-12-14 10:10:00,35.2,35.2,29.03,ESE,111,4.0,4.0,100,0.08,,---,0.12,VWS V14.01,2013-12-14 15:10:00,
2013-12-14 10:11:00,35.2,35.2,29.03,SE,144,8.1,10.1,100,0.08,,---,0.12,VWS V14.01,2013-12-14 15:11:00,
2013-12-14 10:12:00,35.2,35.2,29.03,ESE,118,3.1,3.1,100,0.08,,---,0.12,VWS V14.01,2013-12-14 15:12:00,
2013-12-14 10:14:00,35.2,35.2,29.03,SSE,151,4.9,4.9,100,0.08,,---,0.12,VWS V14.01,2013-12-14 15:14:00,
2013-12-14 10:15:00,35.2,35.2,29.03,ESE,107,2.7,2.7,100,0.08,,---,0.12,VWS V14.01,2013-12-14 15:15:00,
2013-12-14 10:16:00,35.2,35.2,29.03,ESE,109,4.0,5.8,100,0.08,,---,0.12,VWS V14.01,2013-12-14 15:16:00,
2013-12-14 10:17:00,35.2,35.2,29.03,ESE,102,5.8,5.8,100,0.08,,---,0.12,VWS V14.01,2013-12-14 15:17:00,
2013-12-14 10:19:00,35.2,35.2,29.03,ESE,120,5.4,5.4,100,0.08,,---,0.12,VWS V14.01,2013-12-14 15:19:00,
2013-12-14 10:20:00,35.2,35.2,29.03,ESE,107,0.0,3.1,100,0.16,,---,0.20,VWS V14.01,2013-12-14 15:20:00,
2013-12-14 10:21:00,35.2,35.2,29.03,East,86,2.7,3.1,100,0.16,,---,0.20,VWS V14.01,2013-12-14 15:21:00,
2013-12-14 10:22:00,35.2,35.2,29.03,ESE,104,2.7,2.7,100,0.16,,---,0.20,VWS V14.01,2013-12-14 15:22:00,
2013-12-14 10:24:00,35.4,35.4,29.03,ESE,120,0.0,3.1,100,0.16,,---,0.20,VWS V14.01,2013-12-14 15:24:00,
2013-12-14 10:25:00,35.4,35.4,29.00,ESE,111,11.0,11.0,100,0.16,,---,0.20,VWS V14.01,2013-12-14 15:25:00,
2013-12-14 10:26:00,35.4,35.4,29.00,SE,141,8.7,11.0,100,0.16,,---,0.20,VWS V14.01,2013-12-14 15:26:00,
2013-12-14 10:27:00,35.4,35.4,29.00,East,98,3.1,8.7,100,0.16,,---,0.20,VWS V14.01,2013-12-14 15:27:00,
2013-12-14 10:28:00,35.4,35.4,29.00,East,86,3.6,8.1,100,0.16,,---,0.20,VWS V14.01,2013-12-14 15:28:00,
2013-12-14 10:29:00,35.4,35.4,29.00,East,95,0.0,2.7,100,0.16,,---,0.20,VWS V14.01,2013-12-14 15:29:00,
2013-12-14 10:30:00,35.4,35.4,29.00,East,85,5.4,5.4,100,0.16,,---,0.20,VWS V14.01,2013-12-14 15:30:00,
2013-12-14 10:31:00,35.4,35.4,29.00,SSE,153,3.6,4.9,100,0.16,,---,0.20,VWS V14.01,2013-12-14 15:31:00,
2013-12-14 10:32:00,35.4,35.4,29.00,East,86,3.1,5.8,100,0.16,,---,0.20,VWS V14.01,2013-12-14 15:32:00,
2013-12-14 10:33:00,35.4,35.4,29.00,East,96,2.2,5.4,100,0.16,,---,0.20,VWS V14.01,2013-12-14 15:33:00,
2013-12-14 10:35:00,35.4,35.4,29.00,East,84,7.6,9.6,100,0.16,,---,0.20,VWS V14.01,2013-12-14 15:35:00,
2013-12-14 10:36:00,35.4,35.4,29.00,East,94,3.1,3.1,100,0.12,,---,0.20,VWS V14.01,2013-12-14 15:36:00,
2013-12-14 10:37:00,35.4,35.4,29.00,East,96,3.1,3.1,100,0.12,,---,0.20,VWS V14.01,2013-12-14 15:37:00,
2013-12-14 10:38:00,35.4,35.4,29.00,SE,130,4.9,4.9,100,0.12,,---,0.20,VWS V14.01,2013-12-14 15:38:00,
2013-12-14 10:40:00,35.4,35.4,29.00,ESE,120,0.0,4.0,100,0.12,,---,0.20,VWS V14.01,2013-12-14 15:40:00,
2013-12-14 10:41:00,35.4,35.4,29.00,East,99,3.6,7.6,100,0.12,,---,0.20,VWS V14.01,2013-12-14 15:41:00,
2013-12-14 10:42:00,35.4,35.4,29.00,ESE,123,5.4,6.3,100,0.12,,---,0.20,VWS V14.01,2013-12-14 15:42:00,
2013-12-14 10:43:00,35.4,35.4,29.00,East,85,4.5,4.9,100,0.12,,---,0.20,VWS V14.01,2013-12-14 15:43:00,
2013-12-14 10:45:00,35.4,35.4,29.00,ESE,118,3.1,3.6,100,0.12,,---,0.20,VWS V14.01,2013-12-14 15:45:00,
2013-12-14 10:46:00,35.4,35.4,29.00,SE,133,3.6,4.9,100,0.16,,---,0.24,VWS V14.01,2013-12-14 15:46:00,
2013-12-14 10:47:00,35.4,35.4,29.00,ESE,119,5.4,5.8,100,0.16,,---,0.24,VWS V14.01,2013-12-14 15:47:00,
2013-12-14 10:48:00,35.4,35.4,29.00,ESE,108,3.1,3.1,100,0.16,,---,0.24,VWS V14.01,2013-12-14 15:48:00,
2013-12-14 10:50:00,35.6,35.6,29.00,SE,127,3.1,3.1,100,0.16,,---,0.24,VWS V14.01,2013-12-14 15:50:00,
2013-12-14 10:51:00,35.6,35.6,29.00,ESE,120,4.0,7.6,100,0.16,,---,0.24,VWS V14.01,2013-12-14 15:51:00,
2013-12-14 10:52:00,35.6,35.6,29.00,East,84,4.9,7.6,100,0.16,,---,0.24,VWS V14.01,2013-12-14 15:52:00,
2013-12-14 10:53:00,35.6,35.6,29.00,SE,129,2.7,2.7,100,0.16,,---,0.24,VWS V14.01,2013-12-14 15:53:00,
2013-12-14 10:55:00,35.6,35.6,29.00,East,101,6.3,7.6,100,0.16,,---,0.24,VWS V14.01,2013-12-14 15:55:00,
2013-12-14 10:56:00,35.6,35.6,29.00,ESE,114,2.7,2.7,100,0.16,,---,0.24,VWS V14.01,2013-12-14 15:56:00,
2013-12-14 10:57:00,35.6,35.6,29.00,ESE,115,0.0,0.0,100,0.16,,---,0.24,VWS V14.01,2013-12-14 15:57:00,
2013-12-14 10:58:00,35.6,35.6,29.00,East,80,0.0,0.0,100,0.16,,---,0.24,VWS V14.01,2013-12-14 15:58:00,
2013-12-14 10:59:00,35.6,35.6,29.00,ENE,78,5.4,5.4,100,0.16,,---,0.24,VWS V14.01,2013-12-14 15:59:00,
2013-12-14 11:00:00,35.6,35.6,29.00,East,94,4.0,4.0,100,0.12,,---,0.24,VWS V14.01,2013-12-14 16:00:00,
2013-12-14 11:01:00,35.6,35.6,29.00,South,179,0.0,2.2,100,0.12,,---,0.24,VWS V14.01,2013-12-14 16:01:00,
2013-12-14 11:02:00,35.6,35.6,29.00,NE,45,3.6,4.0,100,0.12,,---,0.24,VWS V14.01,2013-12-14 16:02:00,
2013-12-14 11:03:00,35.6,35.6,29.00,NE,45,3.6,4.0,100,0.12,,---,0.24,VWS V14.01,2013-12-14 16:03:00,
2013-12-14 11:04:00,35.6,35.6,29.00,ESE,104,2.2,2.2,100,0.12,,---,0.24,VWS V14.01,2013-12-14 16:04:00,
2013-12-14 11:05:00,35.8,35.8,29.00,East,96,0.0,0.0,100,0.16,,---,0.28,VWS V14.01,2013-12-14 16:05:00,
2013-12-14 11:06:00,35.8,35.8,29.00,SSE,158,4.0,4.0,100,0.16,,---,0.28,VWS V14.01,2013-12-14 16:06:00,
2013-12-14 11:07:00,35.8,35.8,29.00,ESE,112,0.0,3.1,100,0.16,,---,0.28,VWS V14.01,2013-12-14 16:07:00,
2013-12-14 11:08:00,35.8,35.8,29.00,ESE,112,3.6,3.6,100,0.16,,---,0.28,VWS V14.01,2013-12-14 16:08:00,
2013-12-14 11:09:00,35.8,35.8,29.00,South,171,0.0,0.0,100,0.16,,---,0.28,VWS V14.01,2013-12-14 16:09:00,
2013-12-14 11:11:00,35.8,35.8,29.00,SSW,205,2.7,2.7,100,0.16,,---,0.28,VWS V14.01,2013-12-14 16:11:00,
2013-12-14 11:13:00,35.8,35.8,29.00,SSW,203,0.0,0.0,100,0.16,,---,0.28,VWS V14.01,2013-12-14 16:13:00,
2013-12-14 11:14:00,35.8,35.8,29.00,SSW,203,0.0,0.0,100,0.16,,---,0.28,VWS V14.01,2013-12-14 16:14:00,
2013-12-14 11:16:00,35.8,35.8,29.00,ESE,118,0.0,0.0,100,0.16,,---,0.28,VWS V14.01,2013-12-14 16:16:00,
2013-12-14 11:17:00,35.8,35.8,29.00,ESE,118,0.0,0.0,100,0.16,,---,0.28,VWS V14.01,2013-12-14 16:17:00,
2013-12-14 11:18:00,35.8,35.8,29.00,ESE,118,0.0,0.0,100,0.16,,---,0.28,VWS V14.01,2013-12-14 16:18:00,
2013-12-14 11:20:00,35.8,35.8,29.00,ESE,118,0.0,2.7,100,0.20,,---,0.31,VWS V14.01,2013-12-14 16:20:00,
2013-12-14 11:22:00,36.0,36.0,29.00,ESE,118,0.0,0.0,100,0.12,,---,0.31,VWS V14.01,2013-12-14 16:22:00,
2013-12-14 11:23:00,36.0,36.0,29.00,ESE,118,0.0,0.0,100,0.12,,---,0.31,VWS V14.01,2013-12-14 16:23:00,
2013-12-14 11:25:00,36.0,36.0,29.00,ESE,118,0.0,0.0,100,0.12,,---,0.31,VWS V14.01,2013-12-14 16:25:00,
2013-12-14 11:27:00,35.8,35.8,29.00,ESE,118,0.0,0.0,100,0.12,,---,0.31,VWS V14.01,2013-12-14 16:27:00,
2013-12-14 11:28:00,35.8,35.8,29.00,ESE,118,0.0,0.0,100,0.12,,---,0.31,VWS V14.01,2013-12-14 16:28:00,
2013-12-14 11:29:00,35.8,35.8,29.00,ESE,118,0.0,0.0,100,0.12,,---,0.31,VWS V14.01,2013-12-14 16:29:00,
2013-12-14 11:30:00,35.8,35.8,29.00,ESE,118,0.0,0.0,100,0.12,,---,0.31,VWS V14.01,2013-12-14 16:30:00,
2013-12-14 11:32:00,35.8,35.8,29.00,ESE,118,0.0,0.0,100,0.12,,---,0.31,VWS V14.01,2013-12-14 16:32:00,
2013-12-14 11:33:00,35.8,35.8,29.00,ESE,118,0.0,0.0,100,0.12,,---,0.31,VWS V14.01,2013-12-14 16:33:00,
2013-12-14 11:34:00,35.8,35.8,29.00,ESE,118,0.0,0.0,100,0.12,,---,0.31,VWS V14.01,2013-12-14 16:34:00,
2013-12-14 11:35:00,35.8,35.8,29.00,ESE,118,0.0,0.0,100,0.16,,---,0.35,VWS V14.01,2013-12-14 16:35:00,
2013-12-14 11:37:00,35.8,35.8,29.00,ESE,118,0.0,0.0,100,0.16,,---,0.35,VWS V14.01,2013-12-14 16:37:00,
2013-12-14 11:38:00,35.8,35.8,29.00,ESE,118,0.0,0.0,100,0.16,,---,0.35,VWS V14.01,2013-12-14 16:38:00,
2013-12-14 11:39:00,35.8,35.8,29.00,ESE,118,0.0,0.0,100,0.16,,---,0.35,VWS V14.01,2013-12-14 16:39:00,
2013-12-14 11:41:00,35.8,35.8,29.00,ESE,118,0.0,0.0,100,0.16,,---,0.35,VWS V14.01,2013-12-14 16:41:00,
2013-12-14 11:42:00,35.8,35.8,29.00,ESE,118,0.0,0.0,100,0.16,,---,0.35,VWS V14.01,2013-12-14 16:42:00,
2013-12-14 11:44:00,36.0,36.0,29.00,ESE,118,0.0,0.0,100,0.16,,---,0.35,VWS V14.01,2013-12-14 16:44:00,
2013-12-14 11:46:00,36.0,36.0,29.00,ESE,118,0.0,0.0,100,0.16,,---,0.35,VWS V14.01,2013-12-14 16:46:00,
2013-12-14 11:47:00,36.1,36.1,29.00,ESE,118,0.0,0.0,100,0.12,,---,0.35,VWS V14.01,2013-12-14 16:47:00,
2013-12-14 11:48:00,36.1,36.1,29.00,ESE,118,0.0,0.0,100,0.12,,---,0.35,VWS V14.01,2013-12-14 16:48:00,
2013-12-14 11:49:00,36.1,36.1,29.00,ESE,118,0.0,0.0,100,0.12,,---,0.35,VWS V14.01,2013-12-14 16:49:00,
2013-12-14 11:51:00,36.1,36.1,29.00,ESE,118,0.0,0.0,100,0.12,,---,0.35,VWS V14.01,2013-12-14 16:51:00,
2013-12-14 11:53:00,36.1,36.1,29.00,ESE,118,0.0,0.0,100,0.12,,---,0.35,VWS V14.01,2013-12-14 16:53:00,
2013-12-14 11:54:00,36.1,36.1,29.00,ESE,118,0.0,0.0,100,0.12,,---,0.35,VWS V14.01,2013-12-14 16:54:00,
2013-12-14 11:56:00,36.0,36.0,28.97,ESE,118,0.0,0.0,100,0.16,,---,0.39,VWS V14.01,2013-12-14 16:56:00,
2013-12-14 11:58:00,36.0,36.0,28.97,ESE,118,0.0,0.0,100,0.16,,---,0.39,VWS V14.01,2013-12-14 16:58:00,
2013-12-14 11:59:00,36.0,36.0,28.97,North,3,0.0,0.0,100,0.16,,---,0.39,VWS V14.01,2013-12-14 16:59:00,
2013-12-14 12:02:00,36.1,36.1,28.97,North,3,0.0,0.0,100,0.16,,---,0.39,VWS V14.01,2013-12-14 17:02:00,
2013-12-14 12:03:00,36.1,36.1,28.97,North,3,0.0,0.0,100,0.16,,---,0.39,VWS V14.01,2013-12-14 17:03:00,
2013-12-14 12:04:00,36.1,36.1,28.97,North,3,0.0,0.0,100,0.16,,---,0.39,VWS V14.01,2013-12-14 17:04:00,
2013-12-14 12:07:00,36.1,36.1,28.97,North,3,0.0,0.0,100,0.12,,---,0.39,VWS V14.01,2013-12-14 17:07:00,
2013-12-14 12:08:00,36.1,36.1,28.97,NNE,31,0.0,0.0,100,0.12,,---,0.39,VWS V14.01,2013-12-14 17:08:00,
2013-12-14 12:09:00,36.1,36.1,28.97,NNE,31,0.0,0.0,100,0.12,,---,0.39,VWS V14.01,2013-12-14 17:09:00,
2013-12-14 12:10:00,36.1,36.1,28.94,NNE,31,0.0,0.0,100,0.12,,---,0.39,VWS V14.01,2013-12-14 17:10:00,
2013-12-14 12:12:00,36.0,36.0,28.94,NNE,31,0.0,0.0,100,0.16,,---,0.43,VWS V14.01,2013-12-14 17:12:00,
2013-12-14 12:14:00,36.0,36.0,28.94,NNE,31,0.0,0.0,100,0.16,,---,0.43,VWS V14.01,2013-12-14 17:14:00,
2013-12-14 12:15:00,35.8,35.8,28.94,NNE,31,0.0,0.0,100,0.16,,---,0.43,VWS V14.01,2013-12-14 17:15:00,
2013-12-14 12:17:00,35.8,35.8,28.94,NNE,19,2.7,3.6,100,0.16,,---,0.43,VWS V14.01,2013-12-14 17:17:00,
2013-12-14 12:19:00,35.8,35.8,28.94,NNE,19,0.0,0.0,100,0.16,,---,0.43,VWS V14.01,2013-12-14 17:19:00,
2013-12-14 12:20:00,35.8,35.8,28.94,NNE,18,0.0,0.0,100,0.12,,---,0.43,VWS V14.01,2013-12-14 17:20:00,
2013-12-14 12:22:00,35.6,35.6,28.94,NNE,18,0.0,0.0,100,0.12,,---,0.43,VWS V14.01,2013-12-14 17:22:00,
2013-12-14 12:24:00,35.6,35.6,28.94,NNE,19,0.0,0.0,100,0.16,,---,0.47,VWS V14.01,2013-12-14 17:24:00,
2013-12-14 12:25:00,35.6,35.6,28.94,NNE,18,0.0,0.0,100,0.16,,---,0.47,VWS V14.01,2013-12-14 17:25:00,
2013-12-14 12:27:00,35.6,35.6,28.94,NNE,18,0.0,0.0,100,0.16,,---,0.47,VWS V14.01,2013-12-14 17:27:00,
2013-12-14 12:29:00,35.8,35.8,28.94,NNE,18,0.0,0.0,100,0.16,,---,0.47,VWS V14.01,2013-12-14 17:29:00,
2013-12-14 12:30:00,35.8,35.8,28.94,NNE,19,0.0,0.0,100,0.16,,---,0.47,VWS V14.01,2013-12-14 17:30:00,
2013-12-14 12:32:00,35.8,35.8,28.94,NNE,18,2.7,2.7,100,0.16,,---,0.47,VWS V14.01,2013-12-14 17:32:00,
2013-12-14 12:34:00,36.0,36.0,28.94,NNE,18,0.0,0.0,100,0.16,,---,0.47,VWS V14.01,2013-12-14 17:34:00,
2013-12-14 12:35:00,36.0,36.0,28.94,NNE,19,0.0,0.0,100,0.16,,---,0.47,VWS V14.01,2013-12-14 17:35:00,
2013-12-14 12:38:00,36.0,36.0,28.94,NNE,19,0.0,0.0,100,0.12,,---,0.47,VWS V14.01,2013-12-14 17:38:00,
2013-12-14 12:39:00,36.1,36.1,28.94,NNE,18,0.0,0.0,100,0.12,,---,0.47,VWS V14.01,2013-12-14 17:39:00,
2013-12-14 12:40:00,36.1,36.1,28.91,NNE,19,0.0,0.0,100,0.12,,---,0.47,VWS V14.01,2013-12-14 17:40:00,
2013-12-14 12:43:00,36.1,36.1,28.91,NNE,18,0.0,0.0,100,0.12,,---,0.47,VWS V14.01,2013-12-14 17:43:00,
2013-12-14 12:44:00,36.1,36.1,28.91,NNE,18,0.0,0.0,100,0.12,,---,0.47,VWS V14.01,2013-12-14 17:44:00,
2013-12-14 12:45:00,36.1,36.1,28.91,NNE,18,0.0,0.0,100,0.12,,---,0.47,VWS V14.01,2013-12-14 17:45:00,
2013-12-14 12:46:00,36.1,36.1,28.91,NNE,19,0.0,0.0,100,0.12,,---,0.47,VWS V14.01,2013-12-14 17:46:00,
2013-12-14 12:48:00,36.1,36.1,28.91,NNE,18,0.0,0.0,100,0.12,,---,0.47,VWS V14.01,2013-12-14 17:48:00,
2013-12-14 12:50:00,36.1,36.1,28.91,NNE,19,0.0,0.0,100,0.12,,---,0.47,VWS V14.01,2013-12-14 17:50:00,
2013-12-14 12:51:00,36.1,36.1,28.91,NNE,18,0.0,0.0,100,0.12,,---,0.47,VWS V14.01,2013-12-14 17:51:00,
2013-12-14 12:53:00,36.3,36.3,28.91,NNE,19,0.0,0.0,100,0.12,,---,0.47,VWS V14.01,2013-12-14 17:53:00,
2013-12-14 12:55:00,36.3,36.3,28.91,NNE,19,0.0,0.0,100,0.12,,---,0.47,VWS V14.01,2013-12-14 17:55:00,
2013-12-14 12:56:00,36.3,36.3,28.91,NNE,19,0.0,0.0,100,0.12,,---,0.47,VWS V14.01,2013-12-14 17:56:00,
2013-12-14 12:58:00,36.3,36.3,28.91,NNE,19,0.0,0.0,100,0.08,,---,0.47,VWS V14.01,2013-12-14 17:58:00,
2013-12-14 13:00:00,36.3,36.3,28.91,NNE,19,0.0,0.0,100,0.08,,---,0.47,VWS V14.01,2013-12-14 18:00:00,
2013-12-14 13:01:00,36.3,36.3,28.91,NNE,19,0.0,0.0,100,0.08,,---,0.47,VWS V14.01,2013-12-14 18:01:00,
2013-12-14 13:03:00,36.3,36.3,28.91,NNE,19,0.0,0.0,100,0.08,,---,0.47,VWS V14.01,2013-12-14 18:03:00,
2013-12-14 13:05:00,36.3,36.3,28.91,NNE,19,0.0,0.0,100,0.08,,---,0.47,VWS V14.01,2013-12-14 18:05:00,
2013-12-14 13:06:00,36.3,36.3,28.91,NNE,19,0.0,0.0,100,0.08,,---,0.47,VWS V14.01,2013-12-14 18:06:00,
2013-12-14 13:08:00,36.3,36.3,28.91,East,97,2.7,4.0,100,0.08,,---,0.47,VWS V14.01,2013-12-14 18:08:00,
2013-12-14 13:10:00,36.3,36.3,28.91,East,98,0.0,0.0,100,0.08,,---,0.47,VWS V14.01,2013-12-14 18:10:00,
2013-12-14 13:11:00,36.3,36.3,28.91,ESE,105,2.2,3.6,100,0.12,,---,0.51,VWS V14.01,2013-12-14 18:11:00,
2013-12-14 13:14:00,36.5,36.5,28.91,ESE,103,0.0,0.0,100,0.08,,---,0.51,VWS V14.01,2013-12-14 18:14:00,
2013-12-14 13:15:00,36.5,36.5,28.91,ESE,103,0.0,0.0,100,0.08,,---,0.51,VWS V14.01,2013-12-14 18:15:00,
2013-12-14 13:16:00,36.5,36.5,28.91,ESE,103,0.0,0.0,100,0.08,,---,0.51,VWS V14.01,2013-12-14 18:16:00,
2013-12-14 13:19:00,36.7,36.7,28.91,SE,130,0.0,0.0,100,0.08,,---,0.51,VWS V14.01,2013-12-14 18:19:00,
2013-12-14 13:20:00,36.7,36.7,28.91,SE,130,0.0,0.0,100,0.08,,---,0.51,VWS V14.01,2013-12-14 18:20:00,
2013-12-14 13:21:00,36.7,36.7,28.91,SE,130,0.0,0.0,100,0.08,,---,0.51,VWS V14.01,2013-12-14 18:21:00,
2013-12-14 13:24:00,36.7,36.7,28.91,East,96,0.0,0.0,100,0.08,,---,0.51,VWS V14.01,2013-12-14 18:24:00,
2013-12-14 13:25:00,36.9,36.9,28.88,East,96,0.0,0.0,100,0.04,,---,0.51,VWS V14.01,2013-12-14 18:25:00,
2013-12-14 13:26:00,36.9,36.9,28.88,East,89,0.0,0.0,100,0.04,,---,0.51,VWS V14.01,2013-12-14 18:26:00,
2013-12-14 13:27:00,36.9,36.9,28.88,East,87,0.0,0.0,100,0.04,,---,0.51,VWS V14.01,2013-12-14 18:27:00,
2013-12-14 13:30:00,36.9,36.9,28.88,ESE,104,0.0,2.7,100,0.04,,---,0.51,VWS V14.01,2013-12-14 18:30:00,
2013-12-14 13:31:00,36.9,36.9,28.88,ESE,104,0.0,2.7,100,0.04,,---,0.51,VWS V14.01,2013-12-14 18:31:00,
2013-12-14 13:32:00,37.0,37.0,28.88,ESE,104,0.0,0.0,100,0.04,,---,0.51,VWS V14.01,2013-12-14 18:32:00,
2013-12-14 13:35:00,37.0,37.0,28.88,East,95,0.0,0.0,100,0.04,,---,0.51,VWS V14.01,2013-12-14 18:35:00,
2013-12-14 13:36:00,37.0,37.0,28.88,East,95,0.0,0.0,100,0.04,,---,0.51,VWS V14.01,2013-12-14 18:36:00,
2013-12-14 13:37:00,37.2,37.2,28.88,ENE,74,0.0,0.0,100,0.04,,---,0.51,VWS V14.01,2013-12-14 18:37:00,
2013-12-14 13:40:00,37.6,37.6,28.88,ENE,74,0.0,0.0,100,0.04,,---,0.51,VWS V14.01,2013-12-14 18:40:00,
2013-12-14 13:41:00,37.6,37.6,28.88,ENE,74,0.0,0.0,100,0.04,,---,0.51,VWS V14.01,2013-12-14 18:41:00,
2013-12-14 13:42:00,37.6,37.6,28.88,ESE,109,0.0,0.0,100,0.04,,---,0.51,VWS V14.01,2013-12-14 18:42:00,
2013-12-14 13:43:00,37.6,37.6,28.88,ESE,109,0.0,0.0,100,0.04,,---,0.51,VWS V14.01,2013-12-14 18:43:00,
2013-12-14 13:46:00,37.6,37.6,28.88,East,99,0.0,0.0,100,0.04,,---,0.51,VWS V14.01,2013-12-14 18:46:00,
2013-12-14 13:47:00,37.6,37.6,28.88,ESE,115,2.2,2.2,100,0.04,,---,0.51,VWS V14.01,2013-12-14 18:47:00,
2013-12-14 13:48:00,37.6,37.6,28.88,ESE,112,0.0,2.7,100,0.04,,---,0.51,VWS V14.01,2013-12-14 18:48:00,
2013-12-14 13:51:00,37.8,37.8,28.88,SSE,153,0.0,2.2,100,0.04,,---,0.51,VWS V14.01,2013-12-14 18:51:00,
2013-12-14 13:52:00,37.8,37.8,28.88,SSE,153,0.0,2.2,100,0.04,,---,0.51,VWS V14.01,2013-12-14 18:52:00,
2013-12-14 13:53:00,37.8,37.8,28.88,ESE,122,0.0,0.0,100,0.04,,---,0.51,VWS V14.01,2013-12-14 18:53:00,
2013-12-14 13:56:00,37.9,37.9,28.88,ESE,122,0.0,0.0,100,0.04,,---,0.51,VWS V14.01,2013-12-14 18:56:00,
2013-12-14 13:57:00,37.9,37.9,28.88,ESE,122,0.0,0.0,100,0.04,,---,0.51,VWS V14.01,2013-12-14 18:57:00,
2013-12-14 13:58:00,37.9,37.9,28.88,East,93,0.0,2.7,100,0.04,,---,0.51,VWS V14.01,2013-12-14 18:58:00,
2013-12-14 14:01:00,37.9,37.9,28.88,East,93,0.0,0.0,100,0.04,,---,0.51,VWS V14.01,2013-12-14 19:01:00,
2013-12-14 14:02:00,37.9,37.9,28.88,East,93,0.0,0.0,100,0.04,,---,0.51,VWS V14.01,2013-12-14 19:02:00,
2013-12-14 14:03:00,37.9,37.9,28.88,East,93,0.0,0.0,100,0.04,,---,0.51,VWS V14.01,2013-12-14 19:03:00,
2013-12-14 14:04:00,37.9,37.9,28.88,East,93,0.0,0.0,100,0.04,,---,0.51,VWS V14.01,2013-12-14 19:04:00,
2013-12-14 14:06:00,37.9,37.9,28.88,East,93,0.0,0.0,100,0.04,,---,0.51,VWS V14.01,2013-12-14 19:06:00,
2013-12-14 14:07:00,37.9,37.9,28.88,East,85,2.2,2.2,100,0.04,,---,0.51,VWS V14.01,2013-12-14 19:07:00,
2013-12-14 14:08:00,37.9,37.9,28.88,East,85,0.0,0.0,100,0.04,,---,0.51,VWS V14.01,2013-12-14 19:08:00,
2013-12-14 14:09:00,37.9,37.9,28.88,East,85,0.0,0.0,100,0.04,,---,0.51,VWS V14.01,2013-12-14 19:09:00,
2013-12-14 14:11:00,37.8,37.8,28.88,East,85,0.0,0.0,100,0.00,,---,0.51,VWS V14.01,2013-12-14 19:11:00,
2013-12-14 14:12:00,37.8,37.8,28.88,East,85,0.0,0.0,100,0.00,,---,0.51,VWS V14.01,2013-12-14 19:12:00,
2013-12-14 14:14:00,37.8,37.8,28.88,East,85,0.0,0.0,100,0.00,,---,0.51,VWS V14.01,2013-12-14 19:14:00,
2013-12-14 14:17:00,37.8,37.8,28.88,East,85,0.0,0.0,100,0.00,,---,0.51,VWS V14.01,2013-12-14 19:17:00,
2013-12-14 14:18:00,37.8,37.8,28.88,SW,217,0.0,0.0,100,0.00,,---,0.51,VWS V14.01,2013-12-14 19:18:00,
2013-12-14 14:19:00,37.6,37.6,28.88,SE,140,0.0,0.0,100,0.00,,---,0.51,VWS V14.01,2013-12-14 19:19:00,
2013-12-14 14:22:00,37.6,37.6,28.88,SE,140,0.0,0.0,100,0.00,,---,0.51,VWS V14.01,2013-12-14 19:22:00,
2013-12-14 14:23:00,37.8,37.8,28.88,ESE,119,0.0,0.0,100,0.00,,---,0.51,VWS V14.01,2013-12-14 19:23:00,
2013-12-14 14:24:00,37.8,37.8,28.88,East,91,0.0,0.0,100,0.00,,---,0.51,VWS V14.01,2013-12-14 19:24:00,
2013-12-14 14:25:00,37.8,37.8,28.85,East,91,0.0,0.0,100,0.00,,---,0.51,VWS V14.01,2013-12-14 19:25:00,
2013-12-14 14:27:00,37.6,37.6,28.85,ESE,116,0.0,0.0,100,0.00,,---,0.51,VWS V14.01,2013-12-14 19:27:00,
2013-12-14 14:28:00,37.6,37.6,28.85,ESE,116,0.0,0.0,100,0.00,,---,0.51,VWS V14.01,2013-12-14 19:28:00,
2013-12-14 14:29:00,37.6,37.6,28.85,SW,233,0.0,0.0,100,0.00,,---,0.51,VWS V14.01,2013-12-14 19:29:00,
2013-12-14 14:30:00,37.6,37.6,28.85,West,279,0.0,0.0,100,0.00,,---,0.51,VWS V14.01,2013-12-14 19:30:00,
2013-12-14 14:32:00,37.4,37.4,28.85,West,265,0.0,0.0,100,0.00,,---,0.51,VWS V14.01,2013-12-14 19:32:00,
2013-12-14 14:33:00,37.4,37.4,28.85,West,265,0.0,0.0,100,0.00,,---,0.51,VWS V14.01,2013-12-14 19:33:00,
2013-12-14 14:34:00,37.6,37.6,28.85,West,265,0.0,0.0,100,0.00,,---,0.51,VWS V14.01,2013-12-14 19:34:00,
2013-12-14 14:35:00,37.4,37.4,28.85,ESE,104,4.0,4.0,100,0.00,,---,0.51,VWS V14.01,2013-12-14 19:35:00,
2013-12-14 14:37:00,37.4,37.4,28.85,ESE,104,0.0,0.0,100,0.00,,---,0.51,VWS V14.01,2013-12-14 19:37:00,
2013-12-14 14:38:00,37.4,37.4,28.85,ESE,104,0.0,0.0,100,0.00,,---,0.51,VWS V14.01,2013-12-14 19:38:00,
2013-12-14 14:39:00,37.4,37.4,28.85,SSW,192,0.0,0.0,100,0.00,,---,0.51,VWS V14.01,2013-12-14 19:39:00,
2013-12-14 14:40:00,37.4,37.4,28.85,SSW,192,0.0,0.0,100,0.00,,---,0.51,VWS V14.01,2013-12-14 19:40:00,
2013-12-14 14:42:00,37.4,37.4,28.85,SW,216,0.0,0.0,100,0.00,,---,0.51,VWS V14.01,2013-12-14 19:42:00,
2013-12-14 14:43:00,37.4,37.4,28.85,SW,216,0.0,0.0,100,0.00,,---,0.51,VWS V14.01,2013-12-14 19:43:00,
2013-12-14 14:45:00,37.4,37.4,28.85,SW,216,0.0,0.0,100,0.00,,---,0.51,VWS V14.01,2013-12-14 19:45:00,
2013-12-14 14:46:00,37.4,37.4,28.85,SW,216,0.0,0.0,100,0.00,,---,0.51,VWS V14.01,2013-12-14 19:46:00,
2013-12-14 14:48:00,37.4,37.4,28.85,SSE,149,0.0,0.0,100,0.04,,---,0.55,VWS V14.01,2013-12-14 19:48:00,
2013-12-14 14:49:00,37.4,37.4,28.85,SSE,149,0.0,0.0,100,0.04,,---,0.55,VWS V14.01,2013-12-14 19:49:00,
2013-12-14 14:50:00,37.4,37.4,28.85,ESE,105,0.0,0.0,100,0.04,,---,0.55,VWS V14.01,2013-12-14 19:50:00,
2013-12-14 14:51:00,37.4,37.4,28.85,ESE,105,0.0,0.0,100,0.04,,---,0.55,VWS V14.01,2013-12-14 19:51:00,
2013-12-14 14:53:00,37.4,37.4,28.85,WSW,238,2.7,2.7,100,0.04,,---,0.55,VWS V14.01,2013-12-14 19:53:00,
2013-12-14 14:54:00,37.2,37.2,28.85,West,266,0.0,2.2,100,0.04,,---,0.55,VWS V14.01,2013-12-14 19:54:00,
2013-12-14 14:55:00,37.2,37.2,28.85,West,266,0.0,2.2,100,0.04,,---,0.55,VWS V14.01,2013-12-14 19:55:00,
2013-12-14 14:56:00,37.2,37.2,28.85,West,266,0.0,0.0,100,0.04,,---,0.55,VWS V14.01,2013-12-14 19:56:00,
2013-12-14 14:58:00,37.2,37.2,28.85,West,266,0.0,0.0,100,0.04,,---,0.55,VWS V14.01,2013-12-14 19:58:00,
2013-12-14 14:59:00,37.4,37.4,28.85,West,266,0.0,0.0,100,0.04,,---,0.55,VWS V14.01,2013-12-14 19:59:00,
2013-12-14 15:00:00,37.4,37.4,28.85,West,266,0.0,0.0,100,0.04,,---,0.55,VWS V14.01,2013-12-14 20:00:00,
2013-12-14 15:01:00,37.4,37.4,28.85,West,266,0.0,0.0,100,0.04,,---,0.55,VWS V14.01,2013-12-14 20:01:00,
2013-12-14 15:03:00,37.4,37.4,28.85,West,266,0.0,0.0,100,0.04,,---,0.55,VWS V14.01,2013-12-14 20:03:00,
2013-12-14 15:05:00,37.4,37.4,28.85,West,266,0.0,0.0,100,0.04,,---,0.55,VWS V14.01,2013-12-14 20:05:00,
2013-12-14 15:06:00,37.4,37.4,28.85,West,266,0.0,0.0,100,0.04,,---,0.55,VWS V14.01,2013-12-14 20:06:00,
2013-12-14 15:08:00,37.4,37.4,28.85,SSW,204,0.0,0.0,100,0.04,,---,0.55,VWS V14.01,2013-12-14 20:08:00,
2013-12-14 15:10:00,37.4,37.4,28.85,SSW,204,0.0,0.0,100,0.04,,---,0.55,VWS V14.01,2013-12-14 20:10:00,
2013-12-14 15:11:00,37.4,37.4,28.85,SSW,204,0.0,0.0,100,0.04,,---,0.55,VWS V14.01,2013-12-14 20:11:00,
2013-12-14 15:13:00,37.4,37.4,28.85,SSW,204,0.0,0.0,100,0.04,,---,0.55,VWS V14.01,2013-12-14 20:13:00,
2013-12-14 15:15:00,37.4,37.4,28.85,ESE,113,0.0,0.0,100,0.04,,---,0.55,VWS V14.01,2013-12-14 20:15:00,
2013-12-14 15:16:00,37.4,37.4,28.85,ESE,113,0.0,0.0,100,0.04,,---,0.55,VWS V14.01,2013-12-14 20:16:00,
2013-12-14 15:17:00,37.4,37.4,28.85,ESE,113,0.0,0.0,100,0.04,,---,0.55,VWS V14.01,2013-12-14 20:17:00,
2013-12-14 15:18:00,37.4,37.4,28.85,ESE,113,0.0,0.0,100,0.04,,---,0.55,VWS V14.01,2013-12-14 20:18:00,
2013-12-14 15:19:00,37.4,37.4,28.85,SSE,157,3.1,3.1,100,0.04,,---,0.55,VWS V14.01,2013-12-14 20:19:00,
2013-12-14 15:21:00,37.4,37.4,28.85,SSW,206,0.0,0.0,100,0.04,,---,0.55,VWS V14.01,2013-12-14 20:21:00,
2013-12-14 15:22:00,37.4,37.4,28.85,SSW,206,0.0,0.0,100,0.04,,---,0.55,VWS V14.01,2013-12-14 20:22:00,
2013-12-14 15:23:00,37.4,37.4,28.85,SSW,212,0.0,0.0,100,0.04,,---,0.55,VWS V14.01,2013-12-14 20:23:00,
2013-12-14 15:24:00,37.4,37.4,28.85,SSW,212,0.0,0.0,100,0.04,,---,0.55,VWS V14.01,2013-12-14 20:24:00,
2013-12-14 15:26:00,37.6,37.6,28.85,SSW,212,0.0,0.0,100,0.04,,---,0.55,VWS V14.01,2013-12-14 20:26:00,
2013-12-14 15:27:00,37.6,37.6,28.85,SSW,212,0.0,0.0,100,0.04,,---,0.55,VWS V14.01,2013-12-14 20:27:00,
2013-12-14 15:28:00,37.6,37.6,28.85,SSW,212,0.0,0.0,100,0.04,,---,0.55,VWS V14.01,2013-12-14 20:28:00,
2013-12-14 15:29:00,37.6,37.6,28.85,South,181,2.2,2.2,100,0.04,,---,0.55,VWS V14.01,2013-12-14 20:29:00,
2013-12-14 15:31:00,37.6,37.6,28.85,SE,140,0.0,2.7,100,0.04,,---,0.55,VWS V14.01,2013-12-14 20:31:00,
2013-12-14 15:32:00,37.6,37.6,28.85,SE,140,0.0,0.0,100,0.04,,---,0.55,VWS V14.01,2013-12-14 20:32:00,
2013-12-14 15:33:00,37.6,37.6,28.85,SW,219,0.0,0.0,100,0.04,,---,0.55,VWS V14.01,2013-12-14 20:33:00,
2013-12-14 15:34:00,37.6,37.6,28.85,SW,219,0.0,0.0,100,0.04,,---,0.55,VWS V14.01,2013-12-14 20:34:00,
2013-12-14 15:36:00,37.6,37.6,28.85,SW,219,0.0,0.0,100,0.04,,---,0.55,VWS V14.01,2013-12-14 20:36:00,
2013-12-14 15:37:00,37.6,37.6,28.85,SW,219,0.0,0.0,100,0.04,,---,0.55,VWS V14.01,2013-12-14 20:37:00,
2013-12-14 15:38:00,37.6,37.6,28.85,SW,219,0.0,0.0,100,0.04,,---,0.55,VWS V14.01,2013-12-14 20:38:00,
2013-12-14 15:39:00,37.6,37.6,28.85,SW,219,0.0,0.0,100,0.04,,---,0.55,VWS V14.01,2013-12-14 20:39:00,
2013-12-14 15:41:00,37.6,37.6,28.85,SW,219,0.0,0.0,100,0.04,,---,0.55,VWS V14.01,2013-12-14 20:41:00,
2013-12-14 15:43:00,37.6,37.6,28.85,SSW,195,0.0,0.0,100,0.04,,---,0.55,VWS V14.01,2013-12-14 20:43:00,
2013-12-14 15:44:00,37.6,37.6,28.85,SSW,195,0.0,0.0,100,0.04,,---,0.55,VWS V14.01,2013-12-14 20:44:00,
2013-12-14 15:46:00,37.8,37.8,28.85,SSW,195,0.0,0.0,100,0.04,,---,0.55,VWS V14.01,2013-12-14 20:46:00,
2013-12-14 15:48:00,37.8,37.8,28.85,SSW,195,0.0,0.0,100,0.00,,---,0.55,VWS V14.01,2013-12-14 20:48:00,
2013-12-14 15:49:00,37.8,37.8,28.85,SSW,195,0.0,0.0,100,0.00,,---,0.55,VWS V14.01,2013-12-14 20:49:00,
2013-12-14 15:51:00,37.8,37.8,28.85,SSW,195,0.0,0.0,100,0.00,,---,0.55,VWS V14.01,2013-12-14 20:51:00,
2013-12-14 15:52:00,37.8,37.8,28.85,SSW,195,0.0,0.0,100,0.00,,---,0.55,VWS V14.01,2013-12-14 20:52:00,
2013-12-14 15:54:00,37.9,37.9,28.85,South,191,0.0,3.1,100,0.00,,---,0.55,VWS V14.01,2013-12-14 20:54:00,
2013-12-14 15:57:00,37.9,37.9,28.85,SSW,207,0.0,0.0,100,0.00,,---,0.55,VWS V14.01,2013-12-14 20:57:00,
2013-12-14 15:59:00,37.9,37.9,28.85,SSW,207,0.0,0.0,100,0.00,,---,0.55,VWS V14.01,2013-12-14 20:59:00,
2013-12-14 16:00:00,37.9,37.9,28.85,SSW,207,0.0,0.0,100,0.00,,---,0.55,VWS V14.01,2013-12-14 21:00:00,
2013-12-14 16:02:00,37.9,37.9,28.85,SSW,207,0.0,0.0,100,0.00,,---,0.55,VWS V14.01,2013-12-14 21:02:00,
2013-12-14 16:04:00,37.9,37.9,28.85,SSW,207,0.0,0.0,100,0.00,,---,0.55,VWS V14.01,2013-12-14 21:04:00,
2013-12-14 16:05:00,37.9,37.9,28.85,SSW,207,0.0,0.0,100,0.00,,---,0.55,VWS V14.01,2013-12-14 21:05:00,
2013-12-14 16:07:00,37.9,37.9,28.85,SSW,207,0.0,0.0,100,0.00,,---,0.55,VWS V14.01,2013-12-14 21:07:00,
2013-12-14 16:09:00,37.9,37.9,28.85,SSW,207,0.0,0.0,100,0.04,,---,0.59,VWS V14.01,2013-12-14 21:09:00,
2013-12-14 16:10:00,37.9,37.9,28.85,SSW,207,0.0,0.0,100,0.04,,---,0.59,VWS V14.01,2013-12-14 21:10:00,
2013-12-14 16:12:00,37.9,37.9,28.85,SSW,207,0.0,0.0,100,0.04,,---,0.59,VWS V14.01,2013-12-14 21:12:00,
2013-12-14 16:13:00,37.9,37.9,28.85,SSW,207,0.0,0.0,100,0.04,,---,0.59,VWS V14.01,2013-12-14 21:13:00,
2013-12-14 16:14:00,37.9,37.9,28.85,SSW,207,0.0,0.0,100,0.04,,---,0.59,VWS V14.01,2013-12-14 21:14:00,
2013-12-14 16:15:00,37.9,37.9,28.85,SSW,207,0.0,0.0,100,0.04,,---,0.59,VWS V14.01,2013-12-14 21:15:00,
2013-12-14 16:17:00,37.9,37.9,28.85,SSW,207,0.0,0.0,100,0.04,,---,0.59,VWS V14.01,2013-12-14 21:17:00,
2013-12-14 16:18:00,38.1,38.1,28.85,SSW,207,0.0,0.0,100,0.04,,---,0.59,VWS V14.01,2013-12-14 21:18:00,
2013-12-14 16:19:00,38.1,38.1,28.85,SSW,207,0.0,0.0,100,0.04,,---,0.59,VWS V14.01,2013-12-14 21:19:00,
2013-12-14 16:20:00,38.1,38.1,28.85,SSW,208,0.0,0.0,100,0.04,,---,0.59,VWS V14.01,2013-12-14 21:20:00,
2013-12-14 16:23:00,38.1,38.1,28.85,SSW,207,0.0,0.0,100,0.04,,---,0.59,VWS V14.01,2013-12-14 21:23:00,
2013-12-14 16:25:00,38.1,38.1,28.85,SSW,207,0.0,0.0,100,0.04,,---,0.59,VWS V14.01,2013-12-14 21:25:00,
2013-12-14 16:26:00,38.1,38.1,28.85,SSW,207,0.0,0.0,100,0.04,,---,0.59,VWS V14.01,2013-12-14 21:26:00,
2013-12-14 16:28:00,38.1,38.1,28.85,SSW,207,0.0,0.0,100,0.04,,---,0.59,VWS V14.01,2013-12-14 21:28:00,
2013-12-14 16:30:00,38.1,38.1,28.85,SSW,210,0.0,0.0,100,0.04,,---,0.59,VWS V14.01,2013-12-14 21:30:00,
2013-12-14 16:31:00,38.1,38.1,28.85,SSW,210,0.0,0.0,100,0.04,,---,0.59,VWS V14.01,2013-12-14 21:31:00,
2013-12-14 16:33:00,38.1,38.1,28.85,SSW,210,0.0,0.0,100,0.04,,---,0.59,VWS V14.01,2013-12-14 21:33:00,
2013-12-14 16:35:00,38.1,38.1,28.85,SSW,210,0.0,0.0,100,0.04,,---,0.59,VWS V14.01,2013-12-14 21:35:00,
2013-12-14 16:36:00,38.1,38.1,28.85,SSW,213,0.0,3.6,100,0.04,,---,0.59,VWS V14.01,2013-12-14 21:36:00,
2013-12-14 16:38:00,38.1,38.1,28.85,SW,218,3.6,5.8,100,0.04,,---,0.59,VWS V14.01,2013-12-14 21:38:00,
2013-12-14 16:40:00,38.3,38.3,28.85,SW,225,0.0,4.9,100,0.04,,---,0.59,VWS V14.01,2013-12-14 21:40:00,
2013-12-14 16:41:00,38.3,38.3,28.85,SW,225,0.0,0.0,100,0.04,,---,0.59,VWS V14.01,2013-12-14 21:41:00,
2013-12-14 16:44:00,38.1,38.1,28.85,SW,214,0.0,0.0,100,0.04,,---,0.59,VWS V14.01,2013-12-14 21:44:00,
2013-12-14 16:45:00,38.1,38.1,28.85,SW,214,0.0,0.0,100,0.04,,---,0.59,VWS V14.01,2013-12-14 21:45:00,
2013-12-14 16:46:00,38.1,38.1,28.85,SW,214,0.0,0.0,100,0.04,,---,0.59,VWS V14.01,2013-12-14 21:46:00,
2013-12-14 16:49:00,38.1,38.1,28.85,SW,214,0.0,0.0,100,0.04,,---,0.59,VWS V14.01,2013-12-14 21:49:00,
2013-12-14 16:50:00,38.1,38.1,28.85,SW,224,3.1,5.8,100,0.04,,---,0.59,VWS V14.01,2013-12-14 21:50:00,
2013-12-14 16:51:00,38.1,38.1,28.85,SSW,208,4.0,4.0,100,0.04,,---,0.59,VWS V14.01,2013-12-14 21:51:00,
2013-12-14 16:52:00,38.1,38.1,28.85,SW,231,2.7,3.1,100,0.04,,---,0.59,VWS V14.01,2013-12-14 21:52:00,
2013-12-14 16:54:00,38.1,38.1,28.85,SW,231,0.0,0.0,100,0.04,,---,0.59,VWS V14.01,2013-12-14 21:54:00,
2013-12-14 16:55:00,38.1,38.1,28.88,SW,231,0.0,0.0,100,0.04,,---,0.59,VWS V14.01,2013-12-14 21:55:00,
2013-12-14 16:56:00,38.1,38.1,28.88,SW,231,0.0,0.0,100,0.04,,---,0.59,VWS V14.01,2013-12-14 21:56:00,
2013-12-14 16:57:00,38.1,38.1,28.88,SW,231,0.0,0.0,100,0.04,,---,0.59,VWS V14.01,2013-12-14 21:57:00,
2013-12-14 16:59:00,38.1,38.1,28.88,SW,231,0.0,0.0,100,0.04,,---,0.59,VWS V14.01,2013-12-14 21:59:00,
2013-12-14 17:00:00,37.9,37.9,28.88,SSW,199,2.7,3.6,100,0.04,,---,0.59,VWS V14.01,2013-12-14 22:00:00,
2013-12-14 17:01:00,38.1,38.1,28.88,WSW,240,4.0,4.0,100,0.04,,---,0.59,VWS V14.01,2013-12-14 22:01:00,
2013-12-14 17:02:00,38.1,38.1,28.88,WSW,248,2.2,2.2,100,0.04,,---,0.59,VWS V14.01,2013-12-14 22:02:00,
2013-12-14 17:04:00,38.1,38.1,28.88,SW,214,3.6,6.3,100,0.04,,---,0.59,VWS V14.01,2013-12-14 22:04:00,
2013-12-14 17:05:00,37.9,37.9,28.88,WSW,253,0.0,0.0,100,0.04,,---,0.59,VWS V14.01,2013-12-14 22:05:00,
2013-12-14 17:06:00,37.9,37.9,28.88,West,281,3.6,3.6,100,0.04,,---,0.59,VWS V14.01,2013-12-14 22:06:00,
2013-12-14 17:07:00,37.9,37.9,28.88,SW,219,2.7,5.4,100,0.04,,---,0.59,VWS V14.01,2013-12-14 22:07:00,
2013-12-14 17:10:00,37.9,37.9,28.88,WSW,252,0.0,3.1,100,0.00,,---,0.59,VWS V14.01,2013-12-14 22:10:00,
2013-12-14 17:11:00,37.9,37.9,28.88,SW,230,3.6,3.6,100,0.00,,---,0.59,VWS V14.01,2013-12-14 22:11:00,
2013-12-14 17:12:00,37.9,37.9,28.88,WSW,252,4.0,5.8,100,0.00,,---,0.59,VWS V14.01,2013-12-14 22:12:00,
2013-12-14 17:15:00,37.8,37.8,28.88,WSW,252,0.0,0.0,100,0.00,,---,0.59,VWS V14.01,2013-12-14 22:15:00,
2013-12-14 17:16:00,37.8,37.8,28.88,WSW,240,0.0,4.5,100,0.00,,---,0.59,VWS V14.01,2013-12-14 22:16:00,
2013-12-14 17:17:00,37.8,37.8,28.88,West,259,3.6,4.5,100,0.00,,---,0.59,VWS V14.01,2013-12-14 22:17:00,
2013-12-14 17:20:00,37.6,37.6,28.88,SW,227,2.7,3.1,100,0.00,,---,0.59,VWS V14.01,2013-12-14 22:20:00,
2013-12-14 17:22:00,37.6,37.6,28.88,West,262,3.6,5.8,100,0.00,,---,0.59,VWS V14.01,2013-12-14 22:22:00,
2013-12-14 17:25:00,37.6,37.6,28.88,West,279,3.6,3.6,100,0.00,,---,0.59,VWS V14.01,2013-12-14 22:25:00,
2013-12-14 17:26:00,37.6,37.6,28.88,West,264,2.7,3.6,100,0.00,,---,0.59,VWS V14.01,2013-12-14 22:26:00,
2013-12-14 17:27:00,37.6,37.6,28.88,West,264,0.0,0.0,100,0.00,,---,0.59,VWS V14.01,2013-12-14 22:27:00,
2013-12-14 17:28:00,37.6,37.6,28.88,West,264,3.6,3.6,100,0.00,,---,0.59,VWS V14.01,2013-12-14 22:28:00,
2013-12-14 17:30:00,37.4,37.4,28.88,West,268,0.0,3.1,100,0.00,,---,0.59,VWS V14.01,2013-12-14 22:30:00,
2013-12-14 17:31:00,37.4,37.4,28.88,West,263,0.0,6.3,100,0.00,,---,0.59,VWS V14.01,2013-12-14 22:31:00,
2013-12-14 17:32:00,37.4,37.4,28.88,SW,226,0.0,0.0,100,0.00,,---,0.59,VWS V14.01,2013-12-14 22:32:00,
2013-12-14 17:33:00,37.4,37.4,28.88,West,274,3.1,3.6,100,0.00,,---,0.59,VWS V14.01,2013-12-14 22:33:00,
2013-12-14 17:35:00,37.4,37.4,28.88,West,259,3.6,3.6,100,0.00,,---,0.59,VWS V14.01,2013-12-14 22:35:00,
2013-12-14 17:36:00,37.4,37.4,28.88,West,259,0.0,3.6,100,0.00,,---,0.59,VWS V14.01,2013-12-14 22:36:00,
2013-12-14 17:37:00,37.4,37.4,28.88,WSW,244,0.0,0.0,100,0.00,,---,0.59,VWS V14.01,2013-12-14 22:37:00,
2013-12-14 17:38:00,37.4,37.4,28.88,WSW,238,5.8,5.8,100,0.00,,---,0.59,VWS V14.01,2013-12-14 22:38:00,
2013-12-14 17:40:00,37.4,37.4,28.88,WSW,248,0.0,0.0,100,0.00,,---,0.59,VWS V14.01,2013-12-14 22:40:00,
2013-12-14 17:41:00,37.4,37.4,28.88,WSW,246,0.0,0.0,100,0.00,,---,0.59,VWS V14.01,2013-12-14 22:41:00,
2013-12-14 17:42:00,37.2,37.2,28.88,West,263,2.7,2.7,100,0.00,,---,0.59,VWS V14.01,2013-12-14 22:42:00,
2013-12-14 17:43:00,37.2,37.2,28.88,SW,221,4.9,4.9,100,0.00,,---,0.59,VWS V14.01,2013-12-14 22:43:00,
2013-12-14 17:45:00,37.2,37.2,28.88,WSW,250,5.4,7.6,100,0.00,,---,0.59,VWS V14.01,2013-12-14 22:45:00,
2013-12-14 17:46:00,37.2,37.2,28.88,WSW,248,5.8,5.8,100,0.00,,---,0.59,VWS V14.01,2013-12-14 22:46:00,
2013-12-14 17:47:00,37.2,37.2,28.88,West,275,2.7,4.9,100,0.00,,---,0.59,VWS V14.01,2013-12-14 22:47:00,
2013-12-14 17:48:00,37.2,37.2,28.88,WNW,286,4.9,5.8,100,0.00,,---,0.59,VWS V14.01,2013-12-14 22:48:00,
2013-12-14 17:50:00,37.2,37.2,28.88,West,279,0.0,5.4,100,0.00,,---,0.59,VWS V14.01,2013-12-14 22:50:00,
2013-12-14 17:51:00,37.2,37.2,28.88,WSW,254,2.7,3.6,100,0.00,,---,0.59,VWS V14.01,2013-12-14 22:51:00,
2013-12-14 17:53:00,37.0,37.0,28.88,WSW,258,5.8,5.8,100,0.00,,---,0.59,VWS V14.01,2013-12-14 22:53:00,
2013-12-14 17:54:00,37.0,37.0,28.88,West,274,5.4,5.8,100,0.00,,---,0.59,VWS V14.01,2013-12-14 22:54:00,
2013-12-14 17:55:00,37.0,37.0,28.88,WSW,255,0.0,4.0,100,0.00,,---,0.59,VWS V14.01,2013-12-14 22:55:00,
2013-12-14 17:56:00,37.0,37.0,28.88,West,268,3.6,3.6,100,0.00,,---,0.59,VWS V14.01,2013-12-14 22:56:00,
2013-12-14 17:57:00,37.0,37.0,28.88,SW,232,2.7,3.6,100,0.00,,---,0.59,VWS V14.01,2013-12-14 22:57:00,
2013-12-14 17:58:00,37.0,37.0,28.88,SSE,150,3.6,5.8,100,0.00,,---,0.59,VWS V14.01,2013-12-14 22:58:00,
2013-12-14 17:59:00,37.0,37.0,28.88,West,276,4.9,5.8,100,0.00,,---,0.59,VWS V14.01,2013-12-14 22:59:00,
2013-12-14 18:01:00,37.0,37.0,28.88,West,281,3.1,3.1,100,0.00,,---,0.59,VWS V14.01,2013-12-14 23:01:00,
2013-12-14 18:02:00,37.0,37.0,28.88,West,275,4.9,6.3,100,0.00,,---,0.59,VWS V14.01,2013-12-14 23:02:00,
2013-12-14 18:03:00,37.0,37.0,28.88,West,273,0.0,2.7,100,0.00,,---,0.59,VWS V14.01,2013-12-14 23:03:00,
2013-12-14 18:04:00,37.0,37.0,28.88,WSW,244,3.1,3.1,100,0.00,,---,0.59,VWS V14.01,2013-12-14 23:04:00,
2013-12-14 18:06:00,36.9,36.9,28.88,WSW,256,2.7,5.8,100,0.00,,---,0.59,VWS V14.01,2013-12-14 23:06:00,
2013-12-14 18:07:00,36.9,36.9,28.88,West,265,0.0,2.7,100,0.00,,---,0.59,VWS V14.01,2013-12-14 23:07:00,
2013-12-14 18:09:00,36.9,36.9,28.88,WNW,292,5.4,5.4,100,0.00,,---,0.59,VWS V14.01,2013-12-14 23:09:00,
2013-12-14 18:11:00,36.9,36.9,28.88,WNW,287,4.0,4.9,100,0.00,,---,0.59,VWS V14.01,2013-12-14 23:11:00,
2013-12-14 18:12:00,36.9,36.9,28.88,WSW,246,2.7,3.1,100,0.00,,---,0.59,VWS V14.01,2013-12-14 23:12:00,
2013-12-14 18:14:00,36.9,36.9,28.88,West,259,3.1,4.0,100,0.00,,---,0.59,VWS V14.01,2013-12-14 23:14:00,
2013-12-14 18:16:00,36.9,36.9,28.88,SW,229,4.0,4.5,100,0.00,,---,0.59,VWS V14.01,2013-12-14 23:16:00,
2013-12-14 18:17:00,36.9,36.9,28.88,WNW,293,4.9,4.9,100,0.00,,---,0.59,VWS V14.01,2013-12-14 23:17:00,
2013-12-14 18:19:00,36.9,36.9,28.88,WNW,295,5.4,5.4,100,0.00,,---,0.59,VWS V14.01,2013-12-14 23:19:00,
2013-12-14 18:21:00,36.9,36.9,28.88,NW,305,5.4,5.4,100,0.00,,---,0.59,VWS V14.01,2013-12-14 23:21:00,
2013-12-14 18:22:00,36.9,36.9,28.88,West,281,3.1,5.8,100,0.00,,---,0.59,VWS V14.01,2013-12-14 23:22:00,
2013-12-14 18:24:00,36.7,36.7,28.88,SW,229,11.0,11.0,100,0.00,,---,0.59,VWS V14.01,2013-12-14 23:24:00,
2013-12-14 18:25:00,36.7,36.7,28.88,WSW,238,5.4,11.0,100,0.00,,---,0.59,VWS V14.01,2013-12-14 23:25:00,
2013-12-14 18:26:00,36.9,36.9,28.88,SW,235,2.2,3.6,100,0.00,,---,0.59,VWS V14.01,2013-12-14 23:26:00,
2013-12-14 18:27:00,36.7,36.7,28.88,WNW,297,6.3,6.3,100,0.00,,---,0.59,VWS V14.01,2013-12-14 23:27:00,
2013-12-14 18:28:00,36.7,36.7,28.88,NW,316,4.0,8.7,100,0.00,,---,0.59,VWS V14.01,2013-12-14 23:28:00,
2013-12-14 18:29:00,36.7,36.7,28.88,West,260,3.6,4.9,100,0.00,,---,0.59,VWS V14.01,2013-12-14 23:29:00,
2013-12-14 18:30:00,36.7,36.7,28.88,West,277,4.0,4.0,100,0.00,,---,0.59,VWS V14.01,2013-12-14 23:30:00,
2013-12-14 18:32:00,36.7,36.7,28.88,WSW,256,4.0,8.1,100,0.00,,---,0.59,VWS V14.01,2013-12-14 23:32:00,
2013-12-14 18:33:00,36.7,36.7,28.88,WNW,299,4.0,4.0,100,0.00,,---,0.59,VWS V14.01,2013-12-14 23:33:00,
2013-12-14 18:35:00,36.7,36.7,28.88,West,266,4.0,7.6,100,0.00,,---,0.59,VWS V14.01,2013-12-14 23:35:00,
2013-12-14 18:37:00,36.7,36.7,28.88,West,281,3.6,3.6,100,0.00,,---,0.59,VWS V14.01,2013-12-14 23:37:00,
2013-12-14 18:38:00,36.7,36.7,28.88,WSW,244,4.0,4.0,100,0.00,,---,0.59,VWS V14.01,2013-12-14 23:38:00,
2013-12-14 18:40:00,36.7,36.7,28.91,West,269,5.8,5.8,100,0.00,,---,0.59,VWS V14.01,2013-12-14 23:40:00,
2013-12-14 18:41:00,36.7,36.7,28.91,SW,234,0.0,5.8,100,0.00,,---,0.59,VWS V14.01,2013-12-14 23:41:00,
2013-12-14 18:42:00,36.7,36.7,28.91,West,272,2.7,3.6,100,0.00,,---,0.59,VWS V14.01,2013-12-14 23:42:00,
2013-12-14 18:43:00,36.5,36.5,28.91,WSW,246,5.8,5.8,100,0.00,,---,0.59,VWS V14.01,2013-12-14 23:43:00,
2013-12-14 18:44:00,36.5,36.5,28.91,WNW,287,2.7,5.8,100,0.00,,---,0.59,VWS V14.01,2013-12-14 23:44:00,
2013-12-14 18:45:00,36.5,36.5,28.91,WSW,249,5.8,5.8,100,0.00,,---,0.59,VWS V14.01,2013-12-14 23:45:00,
2013-12-14 18:46:00,36.5,36.5,28.91,West,260,4.0,4.0,100,0.00,,---,0.59,VWS V14.01,2013-12-14 23:46:00,
2013-12-14 18:47:00,36.5,36.5,28.91,WSW,237,5.8,5.8,100,0.00,,---,0.59,VWS V14.01,2013-12-14 23:47:00,
2013-12-14 18:48:00,36.5,36.5,28.91,WNW,282,0.0,5.8,100,0.00,,---,0.59,VWS V14.01,2013-12-14 23:48:00,
2013-12-14 18:49:00,36.5,36.5,28.91,WNW,282,3.6,3.6,100,0.00,,---,0.59,VWS V14.01,2013-12-14 23:49:00,
2013-12-14 18:50:00,36.5,36.5,28.91,WNW,289,3.6,3.6,100,0.00,,---,0.59,VWS V14.01,2013-12-14 23:50:00,
2013-12-14 18:51:00,36.5,36.5,28.91,WSW,250,2.7,4.0,100,0.00,,---,0.59,VWS V14.01,2013-12-14 23:51:00,
2013-12-14 18:52:00,36.5,36.5,28.91,West,274,4.9,4.9,100,0.00,,---,0.59,VWS V14.01,2013-12-14 23:52:00,
2013-12-14 18:53:00,36.3,36.3,28.91,WNW,297,3.1,3.1,100,0.00,,---,0.59,VWS V14.01,2013-12-14 23:53:00,
2013-12-14 18:54:00,36.3,36.3,28.91,WSW,257,3.1,4.0,100,0.00,,---,0.59,VWS V14.01,2013-12-14 23:54:00,
2013-12-14 18:55:00,36.3,36.3,28.91,WNW,298,6.3,6.3,100,0.00,,---,0.59,VWS V14.01,2013-12-14 23:55:00,
2013-12-14 18:56:00,36.3,36.3,28.91,West,275,3.6,4.0,100,0.00,,---,0.59,VWS V14.01,2013-12-14 23:56:00,
2013-12-14 18:57:00,36.3,36.3,28.91,WSW,252,0.0,4.0,100,0.00,,---,0.59,VWS V14.01,2013-12-14 23:57:00,
2013-12-14 18:58:00,36.3,36.3,28.91,WNW,296,0.0,0.0,100,0.00,,---,0.59,VWS V14.01,2013-12-14 23:58:00,
2013-12-14 18:59:00,36.3,36.3,28.91,West,265,3.6,4.9,100,0.00,,---,0.59,VWS V14.01,2013-12-14 23:59:00,
2013-12-14 19:01:00,36.3,36.3,28.91,West,265,4.9,4.9,100,0.00,,---,0.59,VWS V14.01,2013-12-15 00:01:00,
2013-12-14 19:02:00,36.3,36.3,28.91,WSW,238,0.0,5.4,100,0.00,,---,0.59,VWS V14.01,2013-12-15 00:02:00,
2013-12-14 19:03:00,36.3,36.3,28.91,WNW,285,4.0,4.0,100,0.00,,---,0.59,VWS V14.01,2013-12-15 00:03:00,
2013-12-14 19:04:00,36.3,36.3,28.91,WSW,247,5.4,6.3,100,0.00,,---,0.59,VWS V14.01,2013-12-15 00:04:00,
2013-12-14 19:06:00,36.3,36.3,28.91,NW,310,4.0,4.0,100,0.00,,---,0.59,VWS V14.01,2013-12-15 00:06:00,
2013-12-14 19:07:00,36.1,36.1,28.91,WNW,284,5.4,8.3,100,0.00,,---,0.59,VWS V14.01,2013-12-15 00:07:00,
2013-12-14 19:08:00,36.1,36.1,28.91,WNW,293,2.7,3.6,100,0.00,,---,0.59,VWS V14.01,2013-12-15 00:08:00,
2013-12-14 19:09:00,36.1,36.1,28.91,WSW,258,4.0,4.0,100,0.00,,---,0.59,VWS V14.01,2013-12-15 00:09:00,
2013-12-14 19:11:00,36.1,36.1,28.91,West,281,2.2,2.2,100,0.00,,---,0.59,VWS V14.01,2013-12-15 00:11:00,
2013-12-14 19:12:00,36.1,36.1,28.91,West,281,2.7,2.7,100,0.00,,---,0.59,VWS V14.01,2013-12-15 00:12:00,
2013-12-14 19:14:00,36.1,36.1,28.91,WSW,237,2.7,4.0,100,0.00,,---,0.59,VWS V14.01,2013-12-15 00:14:00,
2013-12-14 19:16:00,36.1,36.1,28.91,West,259,0.0,0.0,100,0.00,,---,0.59,VWS V14.01,2013-12-15 00:16:00,
2013-12-14 19:17:00,36.1,36.1,28.91,West,275,0.0,3.6,100,0.00,,---,0.59,VWS V14.01,2013-12-15 00:17:00,
2013-12-14 19:19:00,36.1,36.1,28.91,West,270,0.0,0.0,100,0.00,,---,0.59,VWS V14.01,2013-12-15 00:19:00,
2013-12-14 19:21:00,36.0,36.0,28.91,SW,226,4.0,4.5,100,0.00,,---,0.59,VWS V14.01,2013-12-15 00:21:00,
2013-12-14 19:22:00,36.0,36.0,28.91,West,277,5.4,5.4,100,0.00,,---,0.59,VWS V14.01,2013-12-15 00:22:00,
2013-12-14 19:24:00,36.0,36.0,28.91,West,266,4.9,6.3,100,0.00,,---,0.59,VWS V14.01,2013-12-15 00:24:00,
2013-12-14 19:26:00,36.0,36.0,28.91,WNW,294,0.0,0.0,100,0.00,,---,0.59,VWS V14.01,2013-12-15 00:26:00,
2013-12-14 19:27:00,36.0,36.0,28.91,West,277,4.0,4.0,100,0.00,,---,0.59,VWS V14.01,2013-12-15 00:27:00,
2013-12-14 19:28:00,35.8,35.8,28.91,WNW,290,2.7,3.1,100,0.00,,---,0.59,VWS V14.01,2013-12-15 00:28:00,
2013-12-14 19:29:00,35.8,35.8,28.91,WSW,237,0.0,4.0,100,0.00,,---,0.59,VWS V14.01,2013-12-15 00:29:00,
2013-12-14 19:30:00,35.8,35.8,28.91,West,272,2.7,4.0,100,0.00,,---,0.59,VWS V14.01,2013-12-15 00:30:00,
2013-12-14 19:31:00,35.8,35.8,28.91,WSW,242,7.6,7.6,100,0.00,,---,0.59,VWS V14.01,2013-12-15 00:31:00,
2013-12-14 19:32:00,35.8,35.8,28.91,WSW,242,0.0,0.0,100,0.00,,---,0.59,VWS V14.01,2013-12-15 00:32:00,
2013-12-14 19:33:00,35.8,35.8,28.91,WSW,241,3.6,3.6,100,0.00,,---,0.59,VWS V14.01,2013-12-15 00:33:00,
2013-12-14 19:34:00,35.8,35.8,28.91,WNW,292,3.6,4.0,100,0.00,,---,0.59,VWS V14.01,2013-12-15 00:34:00,
2013-12-14 19:35:00,35.8,35.8,28.91,WNW,290,5.4,5.4,100,0.00,,---,0.59,VWS V14.01,2013-12-15 00:35:00,
2013-12-14 19:36:00,35.8,35.8,28.91,WNW,284,2.7,3.6,100,0.00,,---,0.59,VWS V14.01,2013-12-15 00:36:00,
2013-12-14 19:37:00,35.8,35.8,28.91,West,278,3.6,3.6,100,0.00,,---,0.59,VWS V14.01,2013-12-15 00:37:00,
2013-12-14 19:38:00,35.6,35.6,28.91,SSW,198,5.8,5.8,100,0.00,,---,0.59,VWS V14.01,2013-12-15 00:38:00,
2013-12-14 19:39:00,35.6,35.6,28.91,NW,322,3.1,5.8,100,0.00,,---,0.59,VWS V14.01,2013-12-15 00:39:00,
2013-12-14 19:40:00,35.6,35.6,28.91,West,280,3.6,4.0,100,0.00,,---,0.59,VWS V14.01,2013-12-15 00:40:00,
2013-12-14 19:42:00,35.6,35.6,28.91,WNW,286,0.0,2.7,100,0.00,,---,0.59,VWS V14.01,2013-12-15 00:42:00,
2013-12-14 19:44:00,35.6,35.6,28.91,WNW,292,0.0,2.2,100,0.00,,---,0.59,VWS V14.01,2013-12-15 00:44:00,
2013-12-14 19:45:00,35.6,35.6,28.91,West,276,0.0,4.0,100,0.00,,---,0.59,VWS V14.01,2013-12-15 00:45:00,
2013-12-14 19:47:00,35.6,35.6,28.91,WNW,284,3.6,3.6,100,0.00,,---,0.59,VWS V14.01,2013-12-15 00:47:00,
2013-12-14 19:48:00,35.6,35.6,28.91,WNW,286,5.8,5.8,100,0.00,,---,0.59,VWS V14.01,2013-12-15 00:48:00,
2013-12-14 19:50:00,35.4,35.4,28.91,West,279,4.0,4.0,100,0.00,,---,0.59,VWS V14.01,2013-12-15 00:50:00,
2013-12-14 19:52:00,35.4,35.4,28.91,West,269,3.1,3.6,100,0.00,,---,0.59,VWS V14.01,2013-12-15 00:52:00,
2013-12-14 19:53:00,35.4,35.4,28.91,WNW,282,2.2,3.6,100,0.00,,---,0.59,VWS V14.01,2013-12-15 00:53:00,
2013-12-14 19:55:00,35.4,35.4,28.91,NW,310,3.1,9.6,100,0.00,,---,0.59,VWS V14.01,2013-12-15 00:55:00,
2013-12-14 19:56:00,35.4,35.4,28.91,WNW,290,3.6,6.7,100,0.00,,---,0.59,VWS V14.01,2013-12-15 00:56:00,
2013-12-14 19:57:00,35.4,35.4,28.91,WNW,282,2.2,5.4,100,0.00,,---,0.59,VWS V14.01,2013-12-15 00:57:00,
2013-12-14 19:58:00,35.4,35.4,28.91,WNW,282,2.2,5.4,100,0.00,,---,0.59,VWS V14.01,2013-12-15 00:58:00,
2013-12-14 20:00:00,35.4,35.4,28.91,WSW,250,0.0,0.0,100,0.00,,---,0.59,VWS V14.01,2013-12-15 01:00:00,
2013-12-14 20:01:00,35.4,35.4,28.91,West,280,0.0,0.0,100,0.00,,---,0.59,VWS V14.01,2013-12-15 01:01:00,
2013-12-14 20:02:00,35.2,35.2,28.91,West,266,0.0,0.0,100,0.00,,---,0.59,VWS V14.01,2013-12-15 01:02:00,
2013-12-14 20:03:00,35.2,35.2,28.91,West,266,0.0,0.0,100,0.00,,---,0.59,VWS V14.01,2013-12-15 01:03:00,
2013-12-14 20:05:00,35.2,35.2,28.91,West,281,0.0,3.6,100,0.00,,---,0.59,VWS V14.01,2013-12-15 01:05:00,
2013-12-14 20:06:00,35.2,35.2,28.91,West,260,0.0,2.2,100,0.00,,---,0.59,VWS V14.01,2013-12-15 01:06:00,
2013-12-14 20:07:00,35.1,35.1,28.91,West,281,2.7,4.0,100,0.00,,---,0.59,VWS V14.01,2013-12-15 01:07:00,
2013-12-14 20:08:00,35.1,35.1,28.91,West,281,3.1,4.0,100,0.00,,---,0.59,VWS V14.01,2013-12-15 01:08:00,
2013-12-14 20:10:00,35.1,35.1,28.94,West,278,3.6,3.6,100,0.00,,---,0.59,VWS V14.01,2013-12-15 01:10:00,
2013-12-14 20:11:00,35.1,35.1,28.94,West,268,3.6,3.6,100,0.00,,---,0.59,VWS V14.01,2013-12-15 01:11:00,
2013-12-14 20:12:00,35.1,35.1,28.94,WNW,294,3.1,4.9,100,0.00,,---,0.59,VWS V14.01,2013-12-15 01:12:00,
2013-12-14 20:13:00,35.1,35.1,28.94,WNW,288,6.7,6.7,100,0.00,,---,0.59,VWS V14.01,2013-12-15 01:13:00,
2013-12-14 20:15:00,35.1,35.1,28.94,WNW,285,4.0,6.3,100,0.00,,---,0.59,VWS V14.01,2013-12-15 01:15:00,
2013-12-14 20:16:00,35.1,35.1,28.94,West,281,3.1,4.0,100,0.00,,---,0.59,VWS V14.01,2013-12-15 01:16:00,
2013-12-14 20:17:00,35.1,35.1,28.94,WSW,249,5.4,5.4,100,0.00,,---,0.59,VWS V14.01,2013-12-15 01:17:00,
2013-12-14 20:18:00,35.1,35.1,28.94,WNW,295,3.6,8.1,100,0.00,,---,0.59,VWS V14.01,2013-12-15 01:18:00,
2013-12-14 20:19:00,35.1,35.1,28.94,West,279,3.1,3.1,100,0.00,,---,0.59,VWS V14.01,2013-12-15 01:19:00,
2013-12-14 20:21:00,35.1,35.1,28.94,SW,235,8.1,8.1,100,0.00,,---,0.59,VWS V14.01,2013-12-15 01:21:00,
2013-12-14 20:22:00,35.1,35.1,28.94,WNW,283,2.7,8.1,100,0.00,,---,0.59,VWS V14.01,2013-12-15 01:22:00,
2013-12-14 20:23:00,34.9,34.9,28.94,West,280,0.0,0.0,100,0.00,,---,0.59,VWS V14.01,2013-12-15 01:23:00,
2013-12-14 20:24:00,34.9,34.9,28.94,West,272,3.1,3.1,100,0.00,,---,0.59,VWS V14.01,2013-12-15 01:24:00,
2013-12-14 20:26:00,34.9,34.9,28.94,West,270,4.0,4.0,100,0.00,,---,0.59,VWS V14.01,2013-12-15 01:26:00,
2013-12-14 20:27:00,34.9,34.9,28.94,West,261,0.0,4.0,100,0.00,,---,0.59,VWS V14.01,2013-12-15 01:27:00,
2013-12-14 20:28:00,34.9,34.9,28.94,West,281,2.2,6.3,100,0.00,,---,0.59,VWS V14.01,2013-12-15 01:28:00,
2013-12-14 20:29:00,34.9,34.9,28.94,West,271,2.7,2.7,100,0.00,,---,0.59,VWS V14.01,2013-12-15 01:29:00,
2013-12-14 20:31:00,34.9,34.9,28.94,WNW,287,0.0,0.0,100,0.00,,---,0.59,VWS V14.01,2013-12-15 01:31:00,
2013-12-14 20:32:00,34.9,34.9,28.94,WSW,249,5.4,5.4,100,0.00,,---,0.59,VWS V14.01,2013-12-15 01:32:00,
2013-12-14 20:33:00,34.9,34.9,28.94,WSW,247,2.7,2.7,100,0.00,,---,0.59,VWS V14.01,2013-12-15 01:33:00,
2013-12-14 20:34:00,34.9,34.9,28.94,WNW,282,6.3,6.3,100,0.00,,---,0.59,VWS V14.01,2013-12-15 01:34:00,
2013-12-14 20:36:00,34.9,34.9,28.94,West,277,3.1,3.1,100,0.00,,---,0.59,VWS V14.01,2013-12-15 01:36:00,
2013-12-14 20:37:00,34.9,34.9,28.94,West,266,3.1,5.4,100,0.00,,---,0.59,VWS V14.01,2013-12-15 01:37:00,
2013-12-14 20:38:00,34.9,34.9,28.94,West,274,2.7,5.8,100,0.00,,---,0.59,VWS V14.01,2013-12-15 01:38:00,
2013-12-14 20:39:00,34.9,34.9,28.94,WSW,257,2.7,4.0,100,0.00,,---,0.59,VWS V14.01,2013-12-15 01:39:00,
2013-12-14 20:40:00,34.7,34.7,28.94,West,266,2.7,6.3,100,0.00,,---,0.59,VWS V14.01,2013-12-15 01:40:00,
2013-12-14 20:41:00,34.7,34.7,28.94,West,273,0.0,4.0,100,0.00,,---,0.59,VWS V14.01,2013-12-15 01:41:00,
2013-12-14 20:42:00,34.7,34.7,28.94,West,273,0.0,0.0,100,0.00,,---,0.59,VWS V14.01,2013-12-15 01:42:00,
2013-12-14 20:43:00,34.7,34.7,28.94,WSW,254,0.0,0.0,100,0.00,,---,0.59,VWS V14.01,2013-12-15 01:43:00,
2013-12-14 20:44:00,34.7,34.7,28.94,West,280,4.0,4.0,100,0.00,,---,0.59,VWS V14.01,2013-12-15 01:44:00,
2013-12-14 20:46:00,34.7,34.7,28.94,WNW,282,0.0,4.0,100,0.00,,---,0.59,VWS V14.01,2013-12-15 01:46:00,
2013-12-14 20:47:00,34.7,34.7,28.94,WSW,244,4.9,4.9,100,0.00,,---,0.59,VWS V14.01,2013-12-15 01:47:00,
2013-12-14 20:48:00,34.7,34.7,28.94,WSW,254,3.1,3.1,100,0.00,,---,0.59,VWS V14.01,2013-12-15 01:48:00,
2013-12-14 20:49:00,34.5,34.5,28.94,West,265,4.0,5.8,100,0.00,,---,0.59,VWS V14.01,2013-12-15 01:49:00,
2013-12-14 20:51:00,34.5,34.5,28.94,West,274,0.0,3.1,100,0.00,,---,0.59,VWS V14.01,2013-12-15 01:51:00,
2013-12-14 20:52:00,34.5,34.5,28.94,West,274,0.0,0.0,100,0.00,,---,0.59,VWS V14.01,2013-12-15 01:52:00,
2013-12-14 20:53:00,34.5,34.5,28.94,West,264,3.6,3.6,100,0.00,,---,0.59,VWS V14.01,2013-12-15 01:53:00,
2013-12-14 20:54:00,34.5,34.5,28.94,WSW,257,4.0,4.0,100,0.00,,---,0.59,VWS V14.01,2013-12-15 01:54:00,
2013-12-14 20:56:00,34.5,34.5,28.94,WNW,293,5.8,8.3,100,0.00,,---,0.59,VWS V14.01,2013-12-15 01:56:00,
2013-12-14 20:57:00,34.5,34.5,28.94,NW,307,4.9,5.4,100,0.00,,---,0.59,VWS V14.01,2013-12-15 01:57:00,
2013-12-14 20:58:00,34.5,34.5,28.94,WNW,284,5.4,5.4,100,0.00,,---,0.59,VWS V14.01,2013-12-15 01:58:00,
2013-12-14 20:59:00,34.5,34.5,28.94,NW,304,4.0,4.0,100,0.00,,---,0.59,VWS V14.01,2013-12-15 01:59:00,
2013-12-14 21:00:00,34.3,34.3,28.94,WNW,290,2.7,2.7,100,0.00,,---,0.59,VWS V14.01,2013-12-15 02:00:00,
2013-12-14 21:01:00,34.3,34.3,28.94,SW,222,7.6,7.6,100,0.00,,---,0.59,VWS V14.01,2013-12-15 02:01:00,
2013-12-14 21:02:00,34.3,34.3,28.94,West,276,6.3,6.3,100,0.00,,---,0.59,VWS V14.01,2013-12-15 02:02:00,
2013-12-14 21:03:00,34.3,34.3,28.94,NW,311,5.4,6.3,100,0.00,,---,0.59,VWS V14.01,2013-12-15 02:03:00,
2013-12-14 21:04:00,34.3,34.3,28.94,WNW,284,6.3,6.3,100,0.00,,---,0.59,VWS V14.01,2013-12-15 02:04:00,
2013-12-14 21:05:00,34.3,34.3,28.94,WSW,251,4.0,8.3,100,0.00,,---,0.59,VWS V14.01,2013-12-15 02:05:00,
2013-12-14 21:06:00,34.3,34.3,28.94,SW,233,3.6,3.6,100,0.00,,---,0.59,VWS V14.01,2013-12-15 02:06:00,
2013-12-14 21:07:00,34.3,34.3,28.94,SSW,207,8.1,8.1,100,0.00,,---,0.59,VWS V14.01,2013-12-15 02:07:00,
2013-12-14 21:08:00,34.3,34.3,28.94,WNW,290,3.6,3.6,100,0.00,,---,0.59,VWS V14.01,2013-12-15 02:08:00,
2013-12-14 21:09:00,34.3,34.3,28.94,WNW,292,4.0,4.0,100,0.00,,---,0.59,VWS V14.01,2013-12-15 02:09:00,
2013-12-14 21:11:00,34.2,34.2,28.94,WNW,288,5.4,5.4,100,0.00,,---,0.59,VWS V14.01,2013-12-15 02:11:00,
2013-12-14 21:12:00,34.2,34.2,28.94,NNW,333,6.7,6.7,100,0.00,,---,0.59,VWS V14.01,2013-12-15 02:12:00,
2013-12-14 21:13:00,34.2,34.2,28.94,WNW,284,4.9,6.7,100,0.00,,---,0.59,VWS V14.01,2013-12-15 02:13:00,
2013-12-14 21:14:00,34.2,34.2,28.94,WNW,302,3.1,3.1,100,0.00,,---,0.59,VWS V14.01,2013-12-15 02:14:00,
2013-12-14 21:17:00,34.2,34.2,28.94,WNW,286,4.0,4.0,100,0.00,,---,0.59,VWS V14.01,2013-12-15 02:17:00,
2013-12-14 21:18:00,34.2,34.2,28.94,WNW,295,6.3,6.3,100,0.00,,---,0.59,VWS V14.01,2013-12-15 02:18:00,
2013-12-14 21:19:00,34.2,34.2,28.94,West,280,5.8,5.8,100,0.00,,---,0.59,VWS V14.01,2013-12-15 02:19:00,
2013-12-14 21:22:00,34.0,34.0,28.94,West,269,0.0,0.0,100,0.00,,---,0.59,VWS V14.01,2013-12-15 02:22:00,
2013-12-14 21:23:00,34.0,34.0,28.94,WNW,283,2.2,2.2,100,0.00,,---,0.59,VWS V14.01,2013-12-15 02:23:00,
2013-12-14 21:25:00,34.0,34.0,28.94,WSW,254,3.1,4.0,100,0.00,,---,0.59,VWS V14.01,2013-12-15 02:25:00,
2013-12-14 21:27:00,34.0,34.0,28.94,SW,228,2.7,7.6,100,0.00,,---,0.59,VWS V14.01,2013-12-15 02:27:00,
2013-12-14 21:28:00,34.0,34.0,28.94,WNW,282,5.4,7.6,100,0.00,,---,0.59,VWS V14.01,2013-12-15 02:28:00,
2013-12-14 21:30:00,34.0,34.0,28.94,WNW,300,6.7,6.7,100,0.00,,---,0.59,VWS V14.01,2013-12-15 02:30:00,
2013-12-14 21:32:00,34.0,34.0,28.94,WNW,286,4.0,7.2,100,0.00,,---,0.59,VWS V14.01,2013-12-15 02:32:00,
2013-12-14 21:33:00,34.0,34.0,28.94,WNW,292,6.3,7.2,100,0.00,,---,0.59,VWS V14.01,2013-12-15 02:33:00,
2013-12-14 21:34:00,34.0,34.0,28.94,WNW,284,5.8,6.3,100,0.00,,---,0.59,VWS V14.01,2013-12-15 02:34:00,
2013-12-14 21:35:00,34.0,34.0,28.94,WNW,284,3.1,3.1,100,0.00,,---,0.59,VWS V14.01,2013-12-15 02:35:00,
2013-12-14 21:37:00,34.0,34.0,28.94,West,280,2.2,2.2,100,0.00,,---,0.59,VWS V14.01,2013-12-15 02:37:00,
2013-12-14 21:38:00,33.8,33.8,28.94,WSW,251,0.0,2.7,100,0.00,,---,0.59,VWS V14.01,2013-12-15 02:38:00,
2013-12-14 21:39:00,33.8,33.8,28.94,WNW,285,6.7,6.7,100,0.00,,---,0.59,VWS V14.01,2013-12-15 02:39:00,
2013-12-14 21:40:00,33.8,33.8,28.94,West,260,0.0,5.4,100,0.00,,---,0.59,VWS V14.01,2013-12-15 02:40:00,
2013-12-14 21:43:00,33.8,33.8,28.94,WNW,303,4.0,5.4,100,0.00,,---,0.59,VWS V14.01,2013-12-15 02:43:00,
2013-12-14 21:44:00,33.8,33.8,28.94,WNW,289,3.6,5.4,100,0.00,,---,0.59,VWS V14.01,2013-12-15 02:44:00,
2013-12-14 21:46:00,33.8,33.8,28.94,WNW,282,6.3,7.6,100,0.00,,---,0.59,VWS V14.01,2013-12-15 02:46:00,
2013-12-14 21:48:00,33.8,33.8,28.94,WNW,292,3.6,3.6,100,0.00,,---,0.59,VWS V14.01,2013-12-15 02:48:00,
2013-12-14 21:49:00,33.8,33.8,28.94,NW,316,4.0,4.0,100,0.00,,---,0.59,VWS V14.01,2013-12-15 02:49:00,
2013-12-14 21:52:00,33.8,33.8,28.94,West,274,2.7,2.7,100,0.00,,---,0.59,VWS V14.01,2013-12-15 02:52:00,
2013-12-14 21:53:00,33.8,33.8,28.94,West,278,5.4,5.4,100,0.00,,---,0.59,VWS V14.01,2013-12-15 02:53:00,
2013-12-14 21:54:00,33.8,33.8,28.94,WNW,283,3.1,5.4,100,0.00,,---,0.59,VWS V14.01,2013-12-15 02:54:00,
2013-12-14 21:57:00,33.6,33.6,28.97,North,349,2.7,4.0,100,0.00,,---,0.59,VWS V14.01,2013-12-15 02:57:00,
2013-12-14 21:59:00,33.6,33.6,28.97,West,275,6.3,6.3,100,0.00,,---,0.59,VWS V14.01,2013-12-15 02:59:00,
2013-12-14 22:02:00,33.6,33.6,28.97,WNW,295,4.5,5.8,100,0.00,,---,0.59,VWS V14.01,2013-12-15 03:02:00,
2013-12-14 22:04:00,33.6,33.6,28.97,WNW,292,5.4,5.4,100,0.00,,---,0.59,VWS V14.01,2013-12-15 03:04:00,
2013-12-14 22:07:00,33.4,33.4,28.97,WNW,289,3.6,4.5,100,0.00,,---,0.59,VWS V14.01,2013-12-15 03:07:00,
2013-12-14 22:09:00,33.4,33.4,28.97,WNW,296,3.1,4.5,100,0.00,,---,0.59,VWS V14.01,2013-12-15 03:09:00,
2013-12-14 22:12:00,33.4,33.4,28.97,WNW,294,3.1,6.3,100,0.00,,---,0.59,VWS V14.01,2013-12-15 03:12:00,
2013-12-14 22:14:00,33.3,33.3,28.97,WNW,293,3.1,3.6,100,0.00,,---,0.59,VWS V14.01,2013-12-15 03:14:00,
2013-12-14 22:15:00,33.3,33.3,28.97,WNW,303,4.9,4.9,100,0.00,,---,0.59,VWS V14.01,2013-12-15 03:15:00,
2013-12-14 22:18:00,33.3,33.3,28.97,WNW,288,4.0,5.4,100,0.00,,---,0.59,VWS V14.01,2013-12-15 03:18:00,
2013-12-14 22:19:00,33.3,33.3,28.97,NW,305,2.7,5.8,100,0.00,,---,0.59,VWS V14.01,2013-12-15 03:19:00,
2013-12-14 22:20:00,33.3,33.3,28.97,West,267,4.5,5.8,100,0.00,,---,0.59,VWS V14.01,2013-12-15 03:20:00,
2013-12-14 22:23:00,33.3,33.3,28.97,WSW,252,5.4,5.4,100,0.00,,---,0.59,VWS V14.01,2013-12-15 03:23:00,
2013-12-14 22:24:00,33.3,33.3,28.97,WNW,283,3.6,3.6,100,0.00,,---,0.59,VWS V14.01,2013-12-15 03:24:00,
2013-12-14 22:25:00,33.3,33.3,28.97,SW,233,3.1,5.4,100,0.00,,---,0.59,VWS V14.01,2013-12-15 03:25:00,
2013-12-14 22:28:00,33.1,33.1,28.97,NW,304,2.7,3.1,100,0.00,,---,0.59,VWS V14.01,2013-12-15 03:28:00,
2013-12-14 22:29:00,33.1,33.1,28.97,WNW,294,8.1,8.1,100,0.00,,---,0.59,VWS V14.01,2013-12-15 03:29:00,
2013-12-14 22:30:00,33.1,33.1,28.97,NW,325,3.1,8.1,100,0.04,,---,0.63,VWS V14.01,2013-12-15 03:30:00,
2013-12-14 22:31:00,33.1,33.1,28.97,WNW,287,4.0,4.0,100,0.04,,---,0.63,VWS V14.01,2013-12-15 03:31:00,
2013-12-14 22:33:00,33.1,33.1,28.97,NW,307,2.7,4.0,100,0.04,,---,0.63,VWS V14.01,2013-12-15 03:33:00,
2013-12-14 22:34:00,33.1,33.1,28.97,NNW,329,3.6,4.0,100,0.04,,---,0.63,VWS V14.01,2013-12-15 03:34:00,
2013-12-14 22:35:00,33.1,33.1,28.97,NNW,327,2.7,4.9,100,0.04,,---,0.63,VWS V14.01,2013-12-15 03:35:00,
2013-12-14 22:36:00,33.1,33.1,28.97,WNW,297,2.2,2.2,100,0.04,,---,0.63,VWS V14.01,2013-12-15 03:36:00,
2013-12-14 22:37:00,33.1,33.1,28.97,WNW,297,0.0,2.2,100,0.04,,---,0.63,VWS V14.01,2013-12-15 03:37:00,
2013-12-14 22:39:00,33.1,33.1,28.97,WNW,292,4.0,4.0,100,0.04,,---,0.63,VWS V14.01,2013-12-15 03:39:00,
2013-12-14 22:40:00,33.1,33.1,28.97,WSW,253,0.0,3.1,100,0.04,,---,0.63,VWS V14.01,2013-12-15 03:40:00,
2013-12-14 22:41:00,33.1,33.1,28.97,West,279,0.0,0.0,100,0.04,,---,0.63,VWS V14.01,2013-12-15 03:41:00,
2013-12-14 22:42:00,33.1,33.1,28.97,West,279,2.2,2.2,100,0.04,,---,0.63,VWS V14.01,2013-12-15 03:42:00,
2013-12-14 22:44:00,33.1,33.1,28.97,WNW,303,0.0,4.0,100,0.04,,---,0.63,VWS V14.01,2013-12-15 03:44:00,
2013-12-14 22:45:00,32.9,32.9,28.97,WNW,296,0.0,0.0,100,0.04,,---,0.63,VWS V14.01,2013-12-15 03:45:00,
2013-12-14 22:46:00,32.9,32.9,28.97,WSW,249,0.0,0.0,100,0.04,,---,0.63,VWS V14.01,2013-12-15 03:46:00,
2013-12-14 22:47:00,32.9,32.9,28.97,NW,304,4.9,5.8,100,0.04,,---,0.63,VWS V14.01,2013-12-15 03:47:00,
2013-12-14 22:49:00,32.9,32.9,28.97,WNW,288,3.6,3.6,100,0.04,,---,0.63,VWS V14.01,2013-12-15 03:49:00,
2013-12-14 22:50:00,32.7,32.7,28.97,WNW,289,6.3,6.3,100,0.04,,---,0.63,VWS V14.01,2013-12-15 03:50:00,
2013-12-14 22:51:00,32.7,32.7,28.97,WNW,284,0.0,2.7,100,0.04,,---,0.63,VWS V14.01,2013-12-15 03:51:00,
2013-12-14 22:52:00,32.7,32.7,28.97,West,277,7.6,7.6,100,0.04,,---,0.63,VWS V14.01,2013-12-15 03:52:00,
2013-12-14 22:54:00,32.5,32.5,29.00,WNW,282,3.6,3.6,100,0.04,,---,0.63,VWS V14.01,2013-12-15 03:54:00,
2013-12-14 22:55:00,32.5,32.5,29.00,West,266,4.0,4.0,100,0.04,,---,0.63,VWS V14.01,2013-12-15 03:55:00,
2013-12-14 22:56:00,32.5,32.5,29.00,NW,312,4.0,5.8,100,0.04,,---,0.63,VWS V14.01,2013-12-15 03:56:00,
2013-12-14 22:57:00,32.5,32.5,29.00,West,270,6.3,6.3,100,0.04,,---,0.63,VWS V14.01,2013-12-15 03:57:00,
2013-12-14 22:59:00,32.5,32.5,29.00,NNW,327,0.0,2.2,100,0.04,,---,0.63,VWS V14.01,2013-12-15 03:59:00,
2013-12-14 23:00:00,32.5,32.5,29.00,NNW,327,2.2,2.2,100,0.04,,---,0.63,VWS V14.01,2013-12-15 04:00:00,
2013-12-14 23:01:00,32.5,32.5,29.00,NW,314,5.4,5.8,100,0.04,,---,0.63,VWS V14.01,2013-12-15 04:01:00,
2013-12-14 23:03:00,32.5,32.5,29.00,WNW,298,6.3,6.3,100,0.04,,---,0.63,VWS V14.01,2013-12-15 04:03:00,
2013-12-14 23:05:00,32.5,32.5,29.00,WNW,302,5.4,5.4,100,0.04,,---,0.63,VWS V14.01,2013-12-15 04:05:00,
2013-12-14 23:06:00,32.5,32.5,29.00,WNW,303,6.3,6.3,100,0.04,,---,0.63,VWS V14.01,2013-12-15 04:06:00,
2013-12-14 23:07:00,32.5,32.5,29.00,WNW,286,3.1,3.1,100,0.04,,---,0.63,VWS V14.01,2013-12-15 04:07:00,
2013-12-14 23:08:00,32.4,32.4,29.00,West,274,3.6,3.6,100,0.04,,---,0.63,VWS V14.01,2013-12-15 04:08:00,
2013-12-14 23:10:00,32.4,32.4,29.00,NW,312,0.0,5.4,100,0.04,,---,0.63,VWS V14.01,2013-12-15 04:10:00,
2013-12-14 23:11:00,32.4,32.4,29.00,WNW,296,3.6,4.9,100,0.04,,---,0.63,VWS V14.01,2013-12-15 04:11:00,
2013-12-14 23:12:00,32.4,32.4,29.00,WSW,246,4.0,4.9,100,0.04,,---,0.63,VWS V14.01,2013-12-15 04:12:00,
2013-12-14 23:13:00,32.2,32.2,29.00,NW,319,3.6,9.6,100,0.04,,---,0.63,VWS V14.01,2013-12-15 04:13:00,
2013-12-14 23:15:00,32.2,32.2,29.00,NNW,334,6.3,6.3,100,0.04,,---,0.63,VWS V14.01,2013-12-15 04:15:00,
2013-12-14 23:17:00,32.0,31.8,29.00,NNW,336,0.0,5.4,99,0.04,,---,0.63,VWS V14.01,2013-12-15 04:17:00,
2013-12-14 23:18:00,32.0,31.5,29.00,WNW,303,4.0,6.3,98,0.04,,---,0.63,VWS V14.01,2013-12-15 04:18:00,
2013-12-14 23:20:00,32.0,31.2,29.00,WSW,257,7.6,7.6,97,0.04,,---,0.63,VWS V14.01,2013-12-15 04:20:00,
2013-12-14 23:21:00,31.8,31.1,29.00,NW,325,3.6,7.6,97,0.04,,---,0.63,VWS V14.01,2013-12-15 04:21:00,
2013-12-14 23:22:00,31.8,31.1,29.00,NNW,335,5.4,5.4,97,0.04,,---,0.63,VWS V14.01,2013-12-15 04:22:00,
2013-12-14 23:23:00,31.8,30.8,29.00,NNW,334,7.6,7.6,96,0.04,,---,0.63,VWS V14.01,2013-12-15 04:23:00,
2013-12-14 23:24:00,31.8,30.8,29.00,NW,313,0.0,0.0,96,0.04,,---,0.63,VWS V14.01,2013-12-15 04:24:00,
2013-12-14 23:25:00,31.8,31.1,29.00,WNW,303,3.1,3.6,97,0.04,,---,0.63,VWS V14.01,2013-12-15 04:25:00,
2013-12-14 23:26:00,31.8,31.1,29.00,NW,319,6.3,6.3,97,0.04,,---,0.63,VWS V14.01,2013-12-15 04:26:00,
2013-12-14 23:27:00,31.8,30.8,29.00,NW,316,8.7,8.7,96,0.04,,---,0.63,VWS V14.01,2013-12-15 04:27:00,
2013-12-14 23:28:00,31.8,30.8,29.00,WNW,290,4.9,4.9,96,0.04,,---,0.63,VWS V14.01,2013-12-15 04:28:00,
2013-12-14 23:29:00,31.8,31.1,29.00,WNW,294,3.1,4.5,97,0.04,,---,0.63,VWS V14.01,2013-12-15 04:29:00,
2013-12-14 23:30:00,31.8,31.1,29.00,West,277,2.7,2.7,97,0.00,,---,0.63,VWS V14.01,2013-12-15 04:30:00,
2013-12-14 23:31:00,31.8,31.1,29.00,WNW,300,2.7,2.7,97,0.00,,---,0.63,VWS V14.01,2013-12-15 04:31:00,
2013-12-14 23:32:00,31.8,31.1,29.00,WNW,299,2.2,4.0,97,0.00,,---,0.63,VWS V14.01,2013-12-15 04:32:00,
2013-12-14 23:33:00,31.8,31.1,29.00,WNW,283,0.0,5.8,97,0.00,,---,0.63,VWS V14.01,2013-12-15 04:33:00,
2013-12-14 23:34:00,31.8,31.1,29.00,NW,305,7.6,7.6,97,0.00,,---,0.63,VWS V14.01,2013-12-15 04:34:00,
2013-12-14 23:35:00,31.8,31.1,29.00,NW,315,4.0,5.4,97,0.00,,---,0.63,VWS V14.01,2013-12-15 04:35:00,
2013-12-14 23:36:00,31.8,31.3,29.00,NW,315,0.0,0.0,98,0.00,,---,0.63,VWS V14.01,2013-12-15 04:36:00,
2013-12-14 23:37:00,31.6,31.1,29.00,NNW,331,0.0,0.0,98,0.00,,---,0.63,VWS V14.01,2013-12-15 04:37:00,
2013-12-14 23:38:00,31.6,31.1,29.00,WNW,297,0.0,2.7,98,0.00,,---,0.63,VWS V14.01,2013-12-15 04:38:00,
2013-12-14 23:39:00,31.6,31.1,29.00,West,268,0.0,0.0,98,0.00,,---,0.63,VWS V14.01,2013-12-15 04:39:00,
2013-12-14 23:40:00,31.6,31.1,29.00,NW,325,3.6,3.6,98,0.00,,---,0.63,VWS V14.01,2013-12-15 04:40:00,
2013-12-14 23:41:00,31.6,31.1,29.00,WNW,298,3.1,4.0,98,0.00,,---,0.63,VWS V14.01,2013-12-15 04:41:00,
2013-12-14 23:42:00,31.6,31.1,29.00,NW,304,0.0,3.1,98,0.00,,---,0.63,VWS V14.01,2013-12-15 04:42:00,
2013-12-14 23:43:00,31.5,31.0,29.00,West,281,2.2,6.3,98,0.00,,---,0.63,VWS V14.01,2013-12-15 04:43:00,
2013-12-14 23:44:00,31.5,31.0,29.00,SW,228,0.0,0.0,98,0.00,,---,0.63,VWS V14.01,2013-12-15 04:44:00,
2013-12-14 23:45:00,31.5,31.2,29.00,West,276,4.5,6.3,99,0.00,,---,0.63,VWS V14.01,2013-12-15 04:45:00,
2013-12-14 23:46:00,31.5,31.2,29.00,West,275,0.0,0.0,99,0.00,,---,0.63,VWS V14.01,2013-12-15 04:46:00,
2013-12-14 23:47:00,31.5,31.2,29.00,WNW,300,0.0,0.0,99,0.00,,---,0.63,VWS V14.01,2013-12-15 04:47:00,
2013-12-14 23:48:00,31.3,30.8,29.00,NW,314,0.0,0.0,98,0.00,,---,0.63,VWS V14.01,2013-12-15 04:48:00,
2013-12-14 23:50:00,31.3,30.8,29.00,NW,305,0.0,0.0,98,0.00,,---,0.63,VWS V14.01,2013-12-15 04:50:00,
2013-12-14 23:51:00,31.3,30.8,29.00,SW,234,0.0,0.0,98,0.00,,---,0.63,VWS V14.01,2013-12-15 04:51:00,
2013-12-14 23:52:00,31.3,30.8,29.00,WNW,285,0.0,0.0,98,0.00,,---,0.63,VWS V14.01,2013-12-15 04:52:00,
2013-12-14 23:53:00,31.1,30.6,29.00,WNW,288,0.0,0.0,98,0.00,,---,0.63,VWS V14.01,2013-12-15 04:53:00,
2013-12-14 23:55:00,31.1,30.6,29.03,West,273,0.0,0.0,98,0.00,,---,0.63,VWS V14.01,2013-12-15 04:55:00,
2013-12-14 23:56:00,31.1,30.6,29.03,West,279,0.0,0.0,98,0.00,,---,0.63,VWS V14.01,2013-12-15 04:56:00,
2013-12-14 23:57:00,31.1,30.6,29.03,NW,318,0.0,0.0,98,0.00,,---,0.63,VWS V14.01,2013-12-15 04:57:00,
2013-12-14 23:58:00,31.1,30.6,29.03,WNW,301,0.0,0.0,98,0.00,,---,0.63,VWS V14.01,2013-12-15 04:58:00,